Time,TemperatureF,DewpointF,PressureIn,WindDirection,WindDirectionDegrees,WindSpeedMPH,WindSpeedGustMPH,Humidity,HourlyPrecipIn,Conditions,Clouds,dailyrainin,SolarRadiationWatts/m^2,SoftwareType,DateUTC
2013-03-17 00:00:00,63.1,59.2,29.93,SE,144,4.0,5.0,87,0.00,,---,0.00,0.00,VWS V14.01,2013-03-17 05:00:00,
2013-03-17 00:01:00,63.1,59.2,29.93,SE,143,1.0,5.0,87,0.00,,---,0.00,0.00,VWS V14.01,2013-03-17 05:01:00,
2013-03-17 00:02:00,63.1,59.2,29.93,SSE,151,2.0,5.0,87,0.00,,---,0.00,0.00,VWS V14.01,2013-03-17 05:02:00,
2013-03-17 00:04:00,63.0,59.1,29.93,SE,139,3.0,5.0,87,0.00,,---,0.00,0.00,VWS V14.01,2013-03-17 05:04:00,
2013-03-17 00:05:00,63.0,59.1,29.93,SSE,152,5.0,6.0,87,0.00,,---,0.00,0.00,VWS V14.01,2013-03-17 05:05:00,
2013-03-17 00:08:00,63.0,59.4,29.93,SSE,163,0.0,7.0,88,0.00,,---,0.00,0.00,VWS V14.01,2013-03-17 05:08:00,
2013-03-17 00:10:00,63.0,59.4,29.93,SE,144,4.0,7.0,88,0.00,,---,0.00,0.00,VWS V14.01,2013-03-17 05:10:00,
2013-03-17 00:12:00,63.0,59.4,29.93,SSE,163,2.0,7.0,88,0.00,,---,0.00,0.00,VWS V14.01,2013-03-17 05:12:00,
2013-03-17 00:13:00,62.9,59.3,29.93,South,174,3.0,7.0,88,0.00,,---,0.00,0.00,VWS V14.01,2013-03-17 05:13:00,
2013-03-17 00:14:00,62.9,59.3,29.93,South,173,3.0,7.0,88,0.00,,---,0.00,0.00,VWS V14.01,2013-03-17 05:14:00,
2013-03-17 00:15:00,62.9,59.3,29.93,SSE,150,3.0,7.0,88,0.00,,---,0.00,0.00,VWS V14.01,2013-03-17 05:15:00,
2013-03-17 00:19:00,62.8,59.2,29.92,SE,129,0.0,7.0,88,0.00,,---,0.00,0.00,VWS V14.01,2013-03-17 05:19:00,
2013-03-17 00:20:00,62.8,59.2,29.92,SSE,163,2.0,7.0,88,0.00,,---,0.00,0.00,VWS V14.01,2013-03-17 05:20:00,
2013-03-17 00:22:00,62.8,59.2,29.92,East,88,0.0,7.0,88,0.00,,---,0.00,0.00,VWS V14.01,2013-03-17 05:22:00,
2013-03-17 00:24:00,62.8,59.2,29.92,SE,145,0.0,7.0,88,0.00,,---,0.00,0.00,VWS V14.01,2013-03-17 05:24:00,
2013-03-17 00:27:00,62.7,59.1,29.92,SE,134,3.0,7.0,88,0.00,,---,0.00,0.00,VWS V14.01,2013-03-17 05:27:00,
2013-03-17 00:28:00,62.7,59.1,29.92,East,91,2.0,7.0,88,0.00,,---,0.00,0.00,VWS V14.01,2013-03-17 05:28:00,
2013-03-17 00:29:00,62.7,59.1,29.92,ESE,111,0.0,7.0,88,0.00,,---,0.00,0.00,VWS V14.01,2013-03-17 05:29:00,
2013-03-17 00:30:00,62.7,59.1,29.92,ESE,111,0.0,7.0,88,0.00,,---,0.00,0.00,VWS V14.01,2013-03-17 05:30:00,
2013-03-17 00:32:00,62.6,59.0,29.92,SE,140,0.0,4.0,88,0.00,,---,0.00,0.00,VWS V14.01,2013-03-17 05:32:00,
2013-03-17 00:34:00,62.6,59.0,29.92,East,88,2.0,4.0,88,0.00,,---,0.00,0.00,VWS V14.01,2013-03-17 05:34:00,
2013-03-17 00:35:00,62.5,58.9,29.92,SSE,164,1.0,4.0,88,0.00,,---,0.00,0.00,VWS V14.01,2013-03-17 05:35:00,
2013-03-17 00:37:00,62.5,58.9,29.92,SSE,164,0.0,4.0,88,0.00,,---,0.00,0.00,VWS V14.01,2013-03-17 05:37:00,
2013-03-17 00:42:00,62.3,58.7,29.92,SE,135,2.0,6.0,88,0.00,,---,0.00,0.00,VWS V14.01,2013-03-17 05:42:00,
2013-03-17 00:43:00,62.4,58.8,29.92,SE,135,0.0,6.0,88,0.00,,---,0.00,0.00,VWS V14.01,2013-03-17 05:43:00,
2013-03-17 00:47:00,62.2,58.9,29.92,SE,125,0.0,6.0,89,0.00,,---,0.00,0.00,VWS V14.01,2013-03-17 05:47:00,
2013-03-17 00:48:00,62.2,58.9,29.92,SE,125,1.0,6.0,89,0.00,,---,0.00,0.00,VWS V14.01,2013-03-17 05:48:00,
2013-03-17 00:49:00,62.2,58.6,29.91,SSE,157,2.0,6.0,88,0.00,,---,0.00,0.00,VWS V14.01,2013-03-17 05:49:00,
2013-03-17 00:53:00,62.1,58.8,29.92,SE,130,0.0,6.0,89,0.00,,---,0.00,0.00,VWS V14.01,2013-03-17 05:53:00,
2013-03-17 00:54:00,62.1,58.8,29.92,SE,131,0.0,6.0,89,0.00,,---,0.00,0.00,VWS V14.01,2013-03-17 05:54:00,
2013-03-17 00:55:00,62.1,58.8,29.92,SE,131,0.0,6.0,89,0.00,,---,0.00,0.00,VWS V14.01,2013-03-17 05:55:00,
2013-03-17 00:58:00,62.0,58.7,29.91,SE,144,0.0,6.0,89,0.00,,---,0.00,0.00,VWS V14.01,2013-03-17 05:58:00,
2013-03-17 00:59:00,62.0,58.7,29.91,SE,144,1.0,6.0,89,0.00,,---,0.00,0.00,VWS V14.01,2013-03-17 05:59:00,
2013-03-17 01:00:00,61.9,58.6,29.91,SE,135,3.0,5.0,89,0.00,,---,0.00,0.00,VWS V14.01,2013-03-17 06:00:00,
2013-03-17 01:04:00,61.8,58.5,29.91,SE,139,0.0,5.0,89,0.00,,---,0.00,0.00,VWS V14.01,2013-03-17 06:04:00,
2013-03-17 01:05:00,61.8,58.5,29.91,SE,139,0.0,5.0,89,0.00,,---,0.00,0.00,VWS V14.01,2013-03-17 06:05:00,
2013-03-17 01:06:00,61.8,58.5,29.91,SE,138,4.0,5.0,89,0.00,,---,0.00,0.00,VWS V14.01,2013-03-17 06:06:00,
2013-03-17 01:10:00,61.7,58.7,29.91,SSE,155,0.0,5.0,90,0.00,,---,0.00,0.00,VWS V14.01,2013-03-17 06:10:00,
2013-03-17 01:12:00,61.7,58.7,29.91,East,88,0.0,5.0,90,0.00,,---,0.00,0.00,VWS V14.01,2013-03-17 06:12:00,
2013-03-17 01:15:00,61.6,58.6,29.91,East,91,0.0,5.0,90,0.00,,---,0.00,0.00,VWS V14.01,2013-03-17 06:15:00,
2013-03-17 01:16:00,61.5,58.5,29.91,SE,146,4.0,5.0,90,0.00,,---,0.00,0.00,VWS V14.01,2013-03-17 06:16:00,
2013-03-17 01:17:00,61.5,58.5,29.91,SE,134,3.0,5.0,90,0.00,,---,0.00,0.00,VWS V14.01,2013-03-17 06:17:00,
2013-03-17 01:19:00,61.5,58.5,29.91,SE,134,0.0,5.0,90,0.00,,---,0.00,0.00,VWS V14.01,2013-03-17 06:19:00,
2013-03-17 01:21:00,61.4,58.5,29.91,SE,134,0.0,5.0,90,0.00,,---,0.00,0.00,VWS V14.01,2013-03-17 06:21:00,
2013-03-17 01:22:00,61.4,58.5,29.91,SE,134,0.0,5.0,90,0.00,,---,0.00,0.00,VWS V14.01,2013-03-17 06:22:00,
2013-03-17 01:23:00,61.4,58.5,29.91,SE,130,0.0,5.0,90,0.00,,---,0.00,0.00,VWS V14.01,2013-03-17 06:23:00,
2013-03-17 01:27:00,61.3,58.3,29.91,SSE,148,0.0,5.0,90,0.00,,---,0.00,0.00,VWS V14.01,2013-03-17 06:27:00,
2013-03-17 01:28:00,61.3,58.3,29.91,SSE,148,0.0,5.0,90,0.00,,---,0.00,0.00,VWS V14.01,2013-03-17 06:28:00,
2013-03-17 01:29:00,61.3,58.3,29.91,SSE,148,0.0,5.0,90,0.00,,---,0.00,0.00,VWS V14.01,2013-03-17 06:29:00,
2013-03-17 01:30:00,61.3,58.3,29.91,SSE,148,0.0,5.0,90,0.00,,---,0.00,0.00,VWS V14.01,2013-03-17 06:30:00,
2013-03-17 01:33:00,61.1,58.8,29.91,SSE,148,1.0,2.0,92,0.00,,---,0.00,0.00,VWS V14.01,2013-03-17 06:33:00,
2013-03-17 01:34:00,61.1,58.8,29.91,SSE,148,0.0,2.0,92,0.00,,---,0.00,0.00,VWS V14.01,2013-03-17 06:34:00,
2013-03-17 01:35:00,61.1,58.2,29.91,SSE,148,0.0,2.0,90,0.00,,---,0.00,0.00,VWS V14.01,2013-03-17 06:35:00,
2013-03-17 01:39:00,61.1,58.2,29.91,SSE,148,0.0,2.0,90,0.00,,---,0.00,0.00,VWS V14.01,2013-03-17 06:39:00,
2013-03-17 01:40:00,61.0,58.0,29.91,SSE,148,0.0,2.0,90,0.00,,---,0.00,0.00,VWS V14.01,2013-03-17 06:40:00,
2013-03-17 01:45:00,60.9,58.0,29.90,SSE,148,0.0,2.0,90,0.00,,---,0.00,0.00,VWS V14.01,2013-03-17 06:45:00,
2013-03-17 01:46:00,60.9,58.0,29.90,SSE,148,0.0,2.0,90,0.00,,---,0.00,0.00,VWS V14.01,2013-03-17 06:46:00,
2013-03-17 01:47:00,60.8,57.8,29.90,SSE,148,0.0,2.0,90,0.00,,---,0.00,0.00,VWS V14.01,2013-03-17 06:47:00,
2013-03-17 01:51:00,60.7,57.8,29.90,SSE,148,0.0,2.0,90,0.00,,---,0.00,0.00,VWS V14.01,2013-03-17 06:51:00,
2013-03-17 01:53:00,60.7,58.1,29.90,SSE,148,0.0,2.0,91,0.00,,---,0.00,0.00,VWS V14.01,2013-03-17 06:53:00,
2013-03-17 01:57:00,60.5,57.9,29.90,SSE,148,0.0,2.0,91,0.00,,---,0.00,0.00,VWS V14.01,2013-03-17 06:57:00,
2013-03-17 01:58:00,60.5,57.6,29.90,SSE,148,0.0,2.0,90,0.00,,---,0.00,0.00,VWS V14.01,2013-03-17 06:58:00,
2013-03-17 02:02:00,60.3,57.4,29.90,SSE,148,0.0,0.0,90,0.00,,---,0.00,0.00,VWS V14.01,2013-03-17 07:02:00,
2013-03-17 02:03:00,60.3,57.4,29.90,SSE,148,0.0,0.0,90,0.00,,---,0.00,0.00,VWS V14.01,2013-03-17 07:03:00,
2013-03-17 02:05:00,60.2,57.3,29.90,SSE,148,0.0,0.0,90,0.00,,---,0.00,0.00,VWS V14.01,2013-03-17 07:05:00,
2013-03-17 02:07:00,60.1,57.2,29.90,SSE,148,0.0,0.0,90,0.00,,---,0.00,0.00,VWS V14.01,2013-03-17 07:07:00,
2013-03-17 02:08:00,60.0,57.1,29.90,SSE,148,0.0,0.0,90,0.00,,---,0.00,0.00,VWS V14.01,2013-03-17 07:08:00,
2013-03-17 02:10:00,60.0,57.1,29.89,SSE,148,0.0,0.0,90,0.00,,---,0.00,0.00,VWS V14.01,2013-03-17 07:10:00,
2013-03-17 02:12:00,59.9,57.0,29.89,SSE,148,0.0,0.0,90,0.00,,---,0.00,0.00,VWS V14.01,2013-03-17 07:12:00,
2013-03-17 02:13:00,59.8,56.9,29.89,SSE,148,0.0,0.0,90,0.00,,---,0.00,0.00,VWS V14.01,2013-03-17 07:13:00,
2013-03-17 02:15:00,59.7,56.8,29.89,SSE,148,0.0,0.0,90,0.00,,---,0.00,0.00,VWS V14.01,2013-03-17 07:15:00,
2013-03-17 02:18:00,59.6,56.7,29.89,SSE,148,0.0,0.0,90,0.00,,---,0.00,0.00,VWS V14.01,2013-03-17 07:18:00,
2013-03-17 02:21:00,59.4,56.5,29.89,SSE,148,0.0,0.0,90,0.00,,---,0.00,0.00,VWS V14.01,2013-03-17 07:21:00,
2013-03-17 02:23:00,59.3,56.4,29.89,SSE,148,0.0,0.0,90,0.00,,---,0.00,0.00,VWS V14.01,2013-03-17 07:23:00,
2013-03-17 02:24:00,59.3,56.4,29.89,SSE,148,0.0,0.0,90,0.00,,---,0.00,0.00,VWS V14.01,2013-03-17 07:24:00,
2013-03-17 02:28:00,59.0,56.1,29.89,SSE,148,0.0,0.0,90,0.00,,---,0.00,0.00,VWS V14.01,2013-03-17 07:28:00,
2013-03-17 02:29:00,59.0,56.1,29.89,SSE,148,0.0,1.0,90,0.00,,---,0.00,0.00,VWS V14.01,2013-03-17 07:29:00,
2013-03-17 02:30:00,58.9,56.0,29.89,SSE,148,0.0,0.0,90,0.00,,---,0.00,0.00,VWS V14.01,2013-03-17 07:30:00,
2013-03-17 02:33:00,58.8,55.9,29.89,SSE,148,0.0,0.0,90,0.00,,---,0.00,0.00,VWS V14.01,2013-03-17 07:33:00,
2013-03-17 02:34:00,58.7,55.8,29.89,SSE,148,0.0,0.0,90,0.00,,---,0.00,0.00,VWS V14.01,2013-03-17 07:34:00,
2013-03-17 02:35:00,58.7,55.8,29.89,SSE,148,0.0,0.0,90,0.00,,---,0.00,0.00,VWS V14.01,2013-03-17 07:35:00,
2013-03-17 02:38:00,58.7,55.8,29.89,SSE,148,0.0,0.0,90,0.00,,---,0.00,0.00,VWS V14.01,2013-03-17 07:38:00,
2013-03-17 02:40:00,58.6,55.7,29.88,SSE,148,0.0,0.0,90,0.00,,---,0.00,0.00,VWS V14.01,2013-03-17 07:40:00,
2013-03-17 02:41:00,58.5,55.6,29.88,SSE,148,0.0,0.0,90,0.00,,---,0.00,0.00,VWS V14.01,2013-03-17 07:41:00,
2013-03-17 02:42:00,58.5,55.9,29.88,SSE,148,0.0,0.0,91,0.00,,---,0.00,0.00,VWS V14.01,2013-03-17 07:42:00,
2013-03-17 02:45:00,58.4,55.5,29.88,SSE,148,0.0,0.0,90,0.00,,---,0.00,0.00,VWS V14.01,2013-03-17 07:45:00,
2013-03-17 02:46:00,58.3,55.4,29.88,SSE,148,0.0,0.0,90,0.00,,---,0.00,0.00,VWS V14.01,2013-03-17 07:46:00,
2013-03-17 02:47:00,58.3,55.4,29.88,SSE,148,0.0,0.0,90,0.00,,---,0.00,0.00,VWS V14.01,2013-03-17 07:47:00,
2013-03-17 02:48:00,58.2,55.3,29.88,SSE,148,0.0,0.0,90,0.00,,---,0.00,0.00,VWS V14.01,2013-03-17 07:48:00,
2013-03-17 02:52:00,58.1,55.2,29.88,SSE,148,0.0,0.0,90,0.00,,---,0.00,0.00,VWS V14.01,2013-03-17 07:52:00,
2013-03-17 02:53:00,58.0,55.1,29.88,SSE,148,0.0,0.0,90,0.00,,---,0.00,0.00,VWS V14.01,2013-03-17 07:53:00,
2013-03-17 02:58:00,57.8,55.2,29.88,SSE,148,0.0,0.0,91,0.00,,---,0.00,0.00,VWS V14.01,2013-03-17 07:58:00,
2013-03-17 02:59:00,57.8,55.2,29.88,SSE,148,0.0,0.0,91,0.00,,---,0.00,0.00,VWS V14.01,2013-03-17 07:59:00,
2013-03-17 03:00:00,57.8,55.2,29.88,SSE,148,0.0,0.0,91,0.00,,---,0.00,0.00,VWS V14.01,2013-03-17 08:00:00,
2013-03-17 03:03:00,57.7,55.1,29.88,SSE,148,0.0,0.0,91,0.00,,---,0.00,0.00,VWS V14.01,2013-03-17 08:03:00,
2013-03-17 03:05:00,57.6,55.0,29.88,SSE,148,0.0,0.0,91,0.00,,---,0.00,0.00,VWS V14.01,2013-03-17 08:05:00,
2013-03-17 03:06:00,57.6,55.0,29.88,SSE,148,0.0,0.0,91,0.00,,---,0.00,0.00,VWS V14.01,2013-03-17 08:06:00,
2013-03-17 03:09:00,57.5,54.9,29.88,SSE,148,0.0,0.0,91,0.00,,---,0.00,0.00,VWS V14.01,2013-03-17 08:09:00,
2013-03-17 03:11:00,57.4,54.8,29.88,SSE,148,0.0,0.0,91,0.00,,---,0.00,0.00,VWS V14.01,2013-03-17 08:11:00,
2013-03-17 03:12:00,57.4,54.8,29.88,SSE,148,0.0,0.0,91,0.00,,---,0.00,0.00,VWS V14.01,2013-03-17 08:12:00,
2013-03-17 03:14:00,57.4,54.8,29.88,SSE,148,0.0,0.0,91,0.00,,---,0.00,0.00,VWS V14.01,2013-03-17 08:14:00,
2013-03-17 03:16:00,57.3,54.7,29.87,SSE,148,0.0,0.0,91,0.00,,---,0.00,0.00,VWS V14.01,2013-03-17 08:16:00,
2013-03-17 03:17:00,57.3,54.7,29.87,SSE,148,0.0,0.0,91,0.00,,---,0.00,0.00,VWS V14.01,2013-03-17 08:17:00,
2013-03-17 03:18:00,57.3,54.7,29.87,SSE,148,0.0,0.0,91,0.00,,---,0.00,0.00,VWS V14.01,2013-03-17 08:18:00,
2013-03-17 03:20:00,57.2,54.6,29.87,SSE,148,0.0,0.0,91,0.00,,---,0.00,0.00,VWS V14.01,2013-03-17 08:20:00,
2013-03-17 03:22:00,57.2,54.6,29.87,SSE,148,0.0,0.0,91,0.00,,---,0.00,0.00,VWS V14.01,2013-03-17 08:22:00,
2013-03-17 03:23:00,57.2,54.6,29.87,SSE,148,0.0,0.0,91,0.00,,---,0.00,0.00,VWS V14.01,2013-03-17 08:23:00,
2013-03-17 03:25:00,57.2,54.6,29.87,SSE,148,0.0,0.0,91,0.00,,---,0.00,0.00,VWS V14.01,2013-03-17 08:25:00,
2013-03-17 03:28:00,57.2,54.6,29.87,SSE,148,0.0,0.0,91,0.00,,---,0.00,0.00,VWS V14.01,2013-03-17 08:28:00,
2013-03-17 03:29:00,57.1,54.5,29.87,SSE,148,0.0,0.0,91,0.00,,---,0.00,0.00,VWS V14.01,2013-03-17 08:29:00,
2013-03-17 03:30:00,57.1,54.5,29.87,SSE,148,0.0,0.0,91,0.00,,---,0.00,0.00,VWS V14.01,2013-03-17 08:30:00,
2013-03-17 03:33:00,57.1,54.8,29.87,SSE,148,0.0,0.0,92,0.00,,---,0.00,0.00,VWS V14.01,2013-03-17 08:33:00,
2013-03-17 03:36:00,57.0,54.7,29.87,SSE,148,0.0,0.0,92,0.00,,---,0.00,0.00,VWS V14.01,2013-03-17 08:36:00,
2013-03-17 03:40:00,56.9,54.6,29.87,SSE,148,0.0,0.0,92,0.00,,---,0.00,0.00,VWS V14.01,2013-03-17 08:40:00,
2013-03-17 03:41:00,56.9,54.6,29.87,SSE,148,0.0,0.0,92,0.00,,---,0.00,0.00,VWS V14.01,2013-03-17 08:41:00,
2013-03-17 03:42:00,56.9,54.6,29.87,SSE,148,0.0,0.0,92,0.00,,---,0.00,0.00,VWS V14.01,2013-03-17 08:42:00,
2013-03-17 03:46:00,56.8,54.5,29.86,SSE,148,0.0,0.0,92,0.00,,---,0.00,0.00,VWS V14.01,2013-03-17 08:46:00,
2013-03-17 03:47:00,56.8,54.5,29.87,SSE,148,0.0,0.0,92,0.00,,---,0.00,0.00,VWS V14.01,2013-03-17 08:47:00,
2013-03-17 03:51:00,56.7,54.4,29.87,SSE,148,0.0,0.0,92,0.00,,---,0.00,0.00,VWS V14.01,2013-03-17 08:51:00,
2013-03-17 03:52:00,56.7,54.4,29.87,SSE,148,0.0,0.0,92,0.00,,---,0.00,0.00,VWS V14.01,2013-03-17 08:52:00,
2013-03-17 03:53:00,56.6,54.3,29.87,SSE,148,0.0,0.0,92,0.00,,---,0.00,0.00,VWS V14.01,2013-03-17 08:53:00,
2013-03-17 03:57:00,56.5,54.2,29.87,SSE,148,0.0,0.0,92,0.00,,---,0.00,0.00,VWS V14.01,2013-03-17 08:57:00,
2013-03-17 03:58:00,56.5,54.2,29.87,SSE,148,0.0,0.0,92,0.00,,---,0.00,0.00,VWS V14.01,2013-03-17 08:58:00,
2013-03-17 04:00:00,56.4,54.1,29.86,SSE,148,0.0,0.0,92,0.00,,---,0.00,0.00,VWS V14.01,2013-03-17 09:00:00,
2013-03-17 04:02:00,56.4,54.1,29.87,SSE,148,0.0,0.0,92,0.00,,---,0.00,0.00,VWS V14.01,2013-03-17 09:02:00,
2013-03-17 04:03:00,56.3,54.0,29.87,SSE,148,0.0,0.0,92,0.00,,---,0.00,0.00,VWS V14.01,2013-03-17 09:03:00,
2013-03-17 04:07:00,56.2,53.9,29.87,SSE,148,0.0,0.0,92,0.00,,---,0.00,0.00,VWS V14.01,2013-03-17 09:07:00,
2013-03-17 04:08:00,56.2,53.9,29.86,SSE,148,0.0,0.0,92,0.00,,---,0.00,0.00,VWS V14.01,2013-03-17 09:08:00,
2013-03-17 04:09:00,56.1,53.8,29.86,SSE,148,0.0,0.0,92,0.00,,---,0.00,0.00,VWS V14.01,2013-03-17 09:09:00,
2013-03-17 04:10:00,56.1,53.8,29.86,SSE,148,0.0,0.0,92,0.00,,---,0.00,0.00,VWS V14.01,2013-03-17 09:10:00,
2013-03-17 04:13:00,56.0,53.7,29.86,SSE,148,0.0,0.0,92,0.00,,---,0.00,0.00,VWS V14.01,2013-03-17 09:13:00,
2013-03-17 04:14:00,56.0,53.7,29.86,SSE,148,0.0,0.0,92,0.00,,---,0.00,0.00,VWS V14.01,2013-03-17 09:14:00,
2013-03-17 04:15:00,55.9,53.6,29.86,SSE,148,0.0,0.0,92,0.00,,---,0.00,0.00,VWS V14.01,2013-03-17 09:15:00,
2013-03-17 04:19:00,55.8,53.5,29.86,SSE,148,0.0,0.0,92,0.00,,---,0.00,0.00,VWS V14.01,2013-03-17 09:19:00,
2013-03-17 04:20:00,55.8,53.5,29.86,SSE,148,0.0,0.0,92,0.00,,---,0.00,0.00,VWS V14.01,2013-03-17 09:20:00,
2013-03-17 04:21:00,55.8,53.5,29.86,SSE,148,0.0,0.0,92,0.00,,---,0.00,0.00,VWS V14.01,2013-03-17 09:21:00,
2013-03-17 04:22:00,55.7,53.4,29.86,SSE,148,0.0,0.0,92,0.00,,---,0.00,0.00,VWS V14.01,2013-03-17 09:22:00,
2013-03-17 04:25:00,55.6,53.3,29.86,SSE,148,0.0,0.0,92,0.00,,---,0.00,0.00,VWS V14.01,2013-03-17 09:25:00,
2013-03-17 04:27:00,55.6,53.3,29.86,SSE,148,0.0,0.0,92,0.00,,---,0.00,0.00,VWS V14.01,2013-03-17 09:27:00,
2013-03-17 04:28:00,55.5,53.2,29.86,SSE,148,0.0,0.0,92,0.00,,---,0.00,0.00,VWS V14.01,2013-03-17 09:28:00,
2013-03-17 04:30:00,55.5,53.2,29.86,SSE,148,0.0,0.0,92,0.00,,---,0.00,0.00,VWS V14.01,2013-03-17 09:30:00,
2013-03-17 04:31:00,55.4,53.1,29.86,SSE,148,0.0,0.0,92,0.00,,---,0.00,0.00,VWS V14.01,2013-03-17 09:31:00,
2013-03-17 04:32:00,55.4,53.1,29.86,SSE,148,0.0,0.0,92,0.00,,---,0.00,0.00,VWS V14.01,2013-03-17 09:32:00,
2013-03-17 04:36:00,55.3,53.0,29.86,SSE,148,0.0,0.0,92,0.00,,---,0.00,0.00,VWS V14.01,2013-03-17 09:36:00,
2013-03-17 04:37:00,55.3,53.0,29.86,SSE,148,0.0,0.0,92,0.00,,---,0.00,0.00,VWS V14.01,2013-03-17 09:37:00,
2013-03-17 04:38:00,55.2,52.9,29.86,SSE,148,0.0,0.0,92,0.00,,---,0.00,0.00,VWS V14.01,2013-03-17 09:38:00,
2013-03-17 04:42:00,55.1,52.8,29.86,SSE,148,0.0,0.0,92,0.00,,---,0.00,0.00,VWS V14.01,2013-03-17 09:42:00,
2013-03-17 04:43:00,55.1,52.8,29.86,SSE,148,0.0,0.0,92,0.00,,---,0.00,0.00,VWS V14.01,2013-03-17 09:43:00,
2013-03-17 04:44:00,55.1,52.8,29.86,SSE,148,0.0,0.0,92,0.00,,---,0.00,0.00,VWS V14.01,2013-03-17 09:44:00,
2013-03-17 04:47:00,55.0,52.7,29.86,SSE,148,0.0,0.0,92,0.00,,---,0.00,0.00,VWS V14.01,2013-03-17 09:47:00,
2013-03-17 04:48:00,55.0,52.7,29.86,SSE,148,0.0,0.0,92,0.00,,---,0.00,0.00,VWS V14.01,2013-03-17 09:48:00,
2013-03-17 04:49:00,55.0,52.7,29.86,SSE,148,0.0,0.0,92,0.00,,---,0.00,0.00,VWS V14.01,2013-03-17 09:49:00,
2013-03-17 04:53:00,54.9,52.6,29.86,SSE,148,0.0,0.0,92,0.00,,---,0.00,0.00,VWS V14.01,2013-03-17 09:53:00,
2013-03-17 04:54:00,54.9,52.6,29.86,SSE,148,0.0,0.0,92,0.00,,---,0.00,0.00,VWS V14.01,2013-03-17 09:54:00,
2013-03-17 04:59:00,54.8,52.5,29.86,SSE,148,0.0,0.0,92,0.00,,---,0.00,0.00,VWS V14.01,2013-03-17 09:59:00,
2013-03-17 05:00:00,54.8,52.5,29.86,SSE,148,0.0,0.0,92,0.00,,---,0.00,0.00,VWS V14.01,2013-03-17 10:00:00,
2013-03-17 05:01:00,54.7,52.7,29.86,SSE,148,0.0,0.0,93,0.00,,---,0.00,0.00,VWS V14.01,2013-03-17 10:01:00,
2013-03-17 05:04:00,54.7,52.7,29.86,SSE,148,0.0,0.0,93,0.00,,---,0.00,0.00,VWS V14.01,2013-03-17 10:04:00,
2013-03-17 05:09:00,54.6,52.6,29.86,SSE,148,0.0,0.0,93,0.00,,---,0.00,0.00,VWS V14.01,2013-03-17 10:09:00,
2013-03-17 05:10:00,54.6,52.6,29.86,SSE,148,0.0,0.0,93,0.00,,---,0.00,0.00,VWS V14.01,2013-03-17 10:10:00,
2013-03-17 05:12:00,54.6,52.6,29.86,SSE,148,0.0,0.0,93,0.00,,---,0.00,0.00,VWS V14.01,2013-03-17 10:12:00,
2013-03-17 05:14:00,54.5,52.5,29.86,SSE,148,0.0,0.0,93,0.00,,---,0.00,0.00,VWS V14.01,2013-03-17 10:14:00,
2013-03-17 05:15:00,54.5,52.5,29.86,SSE,148,0.0,0.0,93,0.00,,---,0.00,0.00,VWS V14.01,2013-03-17 10:15:00,
2013-03-17 05:16:00,54.5,52.5,29.86,SSE,148,0.0,0.0,93,0.00,,---,0.00,0.00,VWS V14.01,2013-03-17 10:16:00,
2013-03-17 05:20:00,54.4,52.4,29.86,SSE,148,0.0,0.0,93,0.00,,---,0.00,0.00,VWS V14.01,2013-03-17 10:20:00,
2013-03-17 05:21:00,54.4,52.4,29.86,SSE,148,0.0,0.0,93,0.00,,---,0.00,0.00,VWS V14.01,2013-03-17 10:21:00,
2013-03-17 05:22:00,54.4,52.4,29.86,SSE,148,0.0,0.0,93,0.00,,---,0.00,0.00,VWS V14.01,2013-03-17 10:22:00,
2013-03-17 05:25:00,54.3,52.3,29.86,SSE,148,0.0,0.0,93,0.00,,---,0.00,0.00,VWS V14.01,2013-03-17 10:25:00,
2013-03-17 05:27:00,54.3,52.3,29.86,SSE,148,0.0,0.0,93,0.00,,---,0.00,0.00,VWS V14.01,2013-03-17 10:27:00,
2013-03-17 05:28:00,54.3,52.3,29.86,SSE,148,0.0,0.0,93,0.00,,---,0.00,0.00,VWS V14.01,2013-03-17 10:28:00,
2013-03-17 05:30:00,54.3,52.3,29.86,SSE,148,0.0,0.0,93,0.00,,---,0.00,0.00,VWS V14.01,2013-03-17 10:30:00,
2013-03-17 05:32:00,54.3,52.3,29.86,SSE,148,0.0,0.0,93,0.00,,---,0.00,0.00,VWS V14.01,2013-03-17 10:32:00,
2013-03-17 05:33:00,54.2,52.2,29.86,SSE,148,0.0,0.0,93,0.00,,---,0.00,0.00,VWS V14.01,2013-03-17 10:33:00,
2013-03-17 05:34:00,54.2,52.2,29.86,SSE,148,0.0,0.0,93,0.00,,---,0.00,0.00,VWS V14.01,2013-03-17 10:34:00,
2013-03-17 05:37:00,54.2,52.2,29.86,SSE,148,0.0,0.0,93,0.00,,---,0.00,0.00,VWS V14.01,2013-03-17 10:37:00,
2013-03-17 05:38:00,54.2,52.2,29.86,SSE,148,0.0,0.0,93,0.00,,---,0.00,0.00,VWS V14.01,2013-03-17 10:38:00,
2013-03-17 05:39:00,54.2,52.2,29.86,SSE,148,0.0,0.0,93,0.00,,---,0.00,0.00,VWS V14.01,2013-03-17 10:39:00,
2013-03-17 05:43:00,54.2,52.2,29.87,SSE,148,0.0,0.0,93,0.00,,---,0.00,0.00,VWS V14.01,2013-03-17 10:43:00,
2013-03-17 05:44:00,54.1,52.1,29.87,SSE,148,0.0,0.0,93,0.00,,---,0.00,0.00,VWS V14.01,2013-03-17 10:44:00,
2013-03-17 05:45:00,54.2,52.2,29.86,SSE,148,0.0,0.0,93,0.00,,---,0.00,0.00,VWS V14.01,2013-03-17 10:45:00,
2013-03-17 05:50:00,54.1,52.1,29.87,SSE,148,0.0,0.0,93,0.00,,---,0.00,0.00,VWS V14.01,2013-03-17 10:50:00,
2013-03-17 05:52:00,54.2,52.2,29.87,SSE,148,0.0,0.0,93,0.00,,---,0.00,0.00,VWS V14.01,2013-03-17 10:52:00,
2013-03-17 05:56:00,54.2,52.5,29.87,SSE,148,0.0,0.0,94,0.00,,---,0.00,0.00,VWS V14.01,2013-03-17 10:56:00,
2013-03-17 05:57:00,54.2,52.5,29.87,SSE,148,0.0,0.0,94,0.00,,---,0.00,0.00,VWS V14.01,2013-03-17 10:57:00,
2013-03-17 05:58:00,54.2,52.5,29.87,SSE,148,0.0,0.0,94,0.00,,---,0.00,0.00,VWS V14.01,2013-03-17 10:58:00,
2013-03-17 06:00:00,54.2,52.5,29.87,SSE,148,0.0,0.0,94,0.00,,---,0.00,0.00,VWS V14.01,2013-03-17 11:00:00,
2013-03-17 06:01:00,54.2,52.5,29.87,SSE,148,0.0,0.0,94,0.00,,---,0.00,0.00,VWS V14.01,2013-03-17 11:01:00,
2013-03-17 06:02:00,54.2,52.5,29.87,SSE,148,0.0,0.0,94,0.00,,---,0.00,0.00,VWS V14.01,2013-03-17 11:02:00,
2013-03-17 06:03:00,54.2,52.5,29.87,SSE,148,0.0,0.0,94,0.00,,---,0.00,0.00,VWS V14.01,2013-03-17 11:03:00,
2013-03-17 06:08:00,54.2,52.5,29.87,SSE,148,0.0,0.0,94,0.00,,---,0.00,0.00,VWS V14.01,2013-03-17 11:08:00,
2013-03-17 06:09:00,54.2,52.5,29.87,SSE,148,0.0,0.0,94,0.00,,---,0.00,0.00,VWS V14.01,2013-03-17 11:09:00,
2013-03-17 06:11:00,54.3,52.6,29.88,SSE,148,0.0,0.0,94,0.00,,---,0.00,0.00,VWS V14.01,2013-03-17 11:11:00,
2013-03-17 06:12:00,54.2,52.5,29.88,SSE,148,0.0,0.0,94,0.00,,---,0.00,0.00,VWS V14.01,2013-03-17 11:12:00,
2013-03-17 06:13:00,54.3,52.6,29.88,SSE,148,0.0,0.0,94,0.00,,---,0.00,0.00,VWS V14.01,2013-03-17 11:13:00,
2013-03-17 06:14:00,54.2,52.5,29.88,SSE,148,0.0,0.0,94,0.00,,---,0.00,0.00,VWS V14.01,2013-03-17 11:14:00,
2013-03-17 06:17:00,54.2,52.5,29.88,SSE,148,0.0,0.0,94,0.00,,---,0.00,0.00,VWS V14.01,2013-03-17 11:17:00,
2013-03-17 06:18:00,54.2,52.5,29.88,SSE,148,0.0,0.0,94,0.00,,---,0.00,0.00,VWS V14.01,2013-03-17 11:18:00,
2013-03-17 06:19:00,54.2,52.5,29.88,SSE,148,0.0,0.0,94,0.00,,---,0.00,0.00,VWS V14.01,2013-03-17 11:19:00,
2013-03-17 06:24:00,54.2,52.5,29.88,SSE,148,0.0,0.0,94,0.00,,---,0.00,0.00,VWS V14.01,2013-03-17 11:24:00,
2013-03-17 06:25:00,54.2,52.5,29.88,SSE,148,0.0,0.0,94,0.00,,---,0.00,0.00,VWS V14.01,2013-03-17 11:25:00,
2013-03-17 06:26:00,54.2,52.5,29.88,SSE,148,0.0,0.0,94,0.00,,---,0.00,0.00,VWS V14.01,2013-03-17 11:26:00,
2013-03-17 06:29:00,54.2,52.5,29.88,SSE,148,0.0,0.0,94,0.00,,---,0.00,0.00,VWS V14.01,2013-03-17 11:29:00,
2013-03-17 06:30:00,54.2,52.5,29.88,SSE,148,0.0,0.0,94,0.00,,---,0.00,0.00,VWS V14.01,2013-03-17 11:30:00,
2013-03-17 06:31:00,54.2,52.5,29.88,SSE,148,0.0,0.0,94,0.00,,---,0.00,0.00,VWS V14.01,2013-03-17 11:31:00,
2013-03-17 06:32:00,54.2,52.5,29.88,SSE,148,0.0,0.0,94,0.00,,---,0.00,0.00,VWS V14.01,2013-03-17 11:32:00,
2013-03-17 06:33:00,54.2,52.5,29.88,SSE,148,0.0,0.0,94,0.00,,---,0.00,0.00,VWS V14.01,2013-03-17 11:33:00,
2013-03-17 06:35:00,54.1,52.4,29.88,SSE,148,0.0,0.0,94,0.00,,---,0.00,0.00,VWS V14.01,2013-03-17 11:35:00,
2013-03-17 06:37:00,54.1,52.4,29.88,SSE,148,0.0,0.0,94,0.00,,---,0.00,0.00,VWS V14.01,2013-03-17 11:37:00,
2013-03-17 06:38:00,54.1,52.4,29.88,SSE,148,0.0,0.0,94,0.00,,---,0.00,0.00,VWS V14.01,2013-03-17 11:38:00,
2013-03-17 06:39:00,54.1,52.4,29.88,SSE,148,0.0,0.0,94,0.00,,---,0.00,0.00,VWS V14.01,2013-03-17 11:39:00,
2013-03-17 06:40:00,54.1,52.4,29.88,SSE,148,0.0,0.0,94,0.00,,---,0.00,0.00,VWS V14.01,2013-03-17 11:40:00,
2013-03-17 06:43:00,54.1,52.4,29.88,SSE,148,0.0,0.0,94,0.00,,---,0.00,0.00,VWS V14.01,2013-03-17 11:43:00,
2013-03-17 06:44:00,54.1,52.4,29.88,SSE,148,0.0,0.0,94,0.00,,---,0.00,0.00,VWS V14.01,2013-03-17 11:44:00,
2013-03-17 06:45:00,54.1,52.4,29.88,SSE,148,0.0,0.0,94,0.00,,---,0.00,0.00,VWS V14.01,2013-03-17 11:45:00,
2013-03-17 06:47:00,54.2,52.5,29.88,SSE,148,0.0,0.0,94,0.00,,---,0.00,0.00,VWS V14.01,2013-03-17 11:47:00,
2013-03-17 06:49:00,54.2,52.5,29.88,SSE,148,0.0,0.0,94,0.00,,---,0.00,0.00,VWS V14.01,2013-03-17 11:49:00,
2013-03-17 06:50:00,54.2,52.5,29.88,SSE,148,0.0,0.0,94,0.00,,---,0.00,0.00,VWS V14.01,2013-03-17 11:50:00,
2013-03-17 06:51:00,54.3,52.6,29.88,SSE,148,0.0,0.0,94,0.00,,---,0.00,0.00,VWS V14.01,2013-03-17 11:51:00,
2013-03-17 06:52:00,54.3,52.6,29.88,SSE,148,0.0,0.0,94,0.00,,---,0.00,0.00,VWS V14.01,2013-03-17 11:52:00,
2013-03-17 06:55:00,54.3,52.6,29.88,SSE,148,0.0,0.0,94,0.00,,---,0.00,0.00,VWS V14.01,2013-03-17 11:55:00,
2013-03-17 06:56:00,54.4,52.7,29.88,SSE,148,0.0,0.0,94,0.00,,---,0.00,0.00,VWS V14.01,2013-03-17 11:56:00,
2013-03-17 06:57:00,54.4,52.7,29.88,SSE,148,0.0,0.0,94,0.00,,---,0.00,0.00,VWS V14.01,2013-03-17 11:57:00,
2013-03-17 06:58:00,54.4,52.7,29.89,SSE,148,0.0,0.0,94,0.00,,---,0.00,0.00,VWS V14.01,2013-03-17 11:58:00,
2013-03-17 07:00:00,54.5,52.8,29.89,SSE,148,0.0,0.0,94,0.00,,---,0.00,0.00,VWS V14.01,2013-03-17 12:00:00,
2013-03-17 07:02:00,54.5,52.8,29.89,SSE,148,0.0,0.0,94,0.00,,---,0.00,0.00,VWS V14.01,2013-03-17 12:02:00,
2013-03-17 07:03:00,54.5,52.8,29.89,SSE,148,0.0,0.0,94,0.00,,---,0.00,0.00,VWS V14.01,2013-03-17 12:03:00,
2013-03-17 07:04:00,54.5,52.8,29.89,SSE,148,0.0,0.0,94,0.00,,---,0.00,0.00,VWS V14.01,2013-03-17 12:04:00,
2013-03-17 07:08:00,54.6,52.9,29.89,SSE,148,0.0,0.0,94,0.00,,---,0.00,0.00,VWS V14.01,2013-03-17 12:08:00,
2013-03-17 07:09:00,54.6,52.9,29.89,SSE,148,0.0,0.0,94,0.00,,---,0.00,0.00,VWS V14.01,2013-03-17 12:09:00,
2013-03-17 07:13:00,54.7,53.3,29.89,SSE,148,0.0,0.0,95,0.00,,---,0.00,0.00,VWS V14.01,2013-03-17 12:13:00,
2013-03-17 07:14:00,54.8,53.4,29.89,SSE,148,0.0,0.0,95,0.00,,---,0.00,0.00,VWS V14.01,2013-03-17 12:14:00,
2013-03-17 07:19:00,54.9,53.5,29.89,SSE,148,0.0,0.0,95,0.00,,---,0.00,0.00,VWS V14.01,2013-03-17 12:19:00,
2013-03-17 07:21:00,55.0,53.6,29.89,SSE,148,0.0,0.0,95,0.00,,---,0.00,0.00,VWS V14.01,2013-03-17 12:21:00,
2013-03-17 07:22:00,55.0,53.6,29.89,SSE,148,0.0,0.0,95,0.00,,---,0.00,0.00,VWS V14.01,2013-03-17 12:22:00,
2013-03-17 07:24:00,55.1,53.7,29.89,SSE,148,0.0,0.0,95,0.00,,---,0.00,0.00,VWS V14.01,2013-03-17 12:24:00,
2013-03-17 07:28:00,55.2,53.8,29.89,SSE,148,0.0,0.0,95,0.00,,---,0.00,0.00,VWS V14.01,2013-03-17 12:28:00,
2013-03-17 07:29:00,55.2,53.8,29.89,SSE,148,0.0,0.0,95,0.00,,---,0.00,0.00,VWS V14.01,2013-03-17 12:29:00,
2013-03-17 07:30:00,55.2,53.8,29.89,SSE,148,0.0,0.0,95,0.00,,---,0.00,0.00,VWS V14.01,2013-03-17 12:30:00,
2013-03-17 07:32:00,55.3,53.9,29.89,SSE,148,0.0,0.0,95,0.00,,---,0.00,0.00,VWS V14.01,2013-03-17 12:32:00,
2013-03-17 07:35:00,55.3,53.9,29.89,SSE,148,0.0,0.0,95,0.00,,---,0.00,0.00,VWS V14.01,2013-03-17 12:35:00,
2013-03-17 07:37:00,55.3,53.9,29.89,SSE,148,0.0,0.0,95,0.00,,---,0.00,0.00,VWS V14.01,2013-03-17 12:37:00,
2013-03-17 07:39:00,55.3,53.9,29.89,SSE,148,0.0,0.0,95,0.00,,---,0.00,5.00,VWS V14.01,2013-03-17 12:39:00,
2013-03-17 07:40:00,55.3,53.9,29.89,SSE,148,0.0,0.0,95,0.00,,---,0.00,5.00,VWS V14.01,2013-03-17 12:40:00,
2013-03-17 07:42:00,55.4,54.0,29.89,SSE,148,0.0,0.0,95,0.00,,---,0.00,5.00,VWS V14.01,2013-03-17 12:42:00,
2013-03-17 07:45:00,55.4,54.0,29.89,SSE,148,0.0,0.0,95,0.00,,---,0.00,9.00,VWS V14.01,2013-03-17 12:45:00,
2013-03-17 07:46:00,55.4,54.0,29.89,SSE,148,0.0,0.0,95,0.00,,---,0.00,9.00,VWS V14.01,2013-03-17 12:46:00,
2013-03-17 07:48:00,55.4,54.0,29.89,SSE,148,0.0,0.0,95,0.00,,---,0.00,9.00,VWS V14.01,2013-03-17 12:48:00,
2013-03-17 07:51:00,55.5,54.1,29.89,SSE,148,0.0,0.0,95,0.00,,---,0.00,9.00,VWS V14.01,2013-03-17 12:51:00,
2013-03-17 07:53:00,55.6,54.2,29.89,SSE,148,0.0,0.0,95,0.00,,---,0.00,11.00,VWS V14.01,2013-03-17 12:53:00,
2013-03-17 07:56:00,55.6,54.2,29.89,SSE,148,0.0,0.0,95,0.00,,---,0.00,11.00,VWS V14.01,2013-03-17 12:56:00,
2013-03-17 07:57:00,55.6,54.2,29.89,SSE,148,0.0,0.0,95,0.00,,---,0.00,11.00,VWS V14.01,2013-03-17 12:57:00,
2013-03-17 07:58:00,55.6,54.2,29.89,SSE,148,0.0,0.0,95,0.00,,---,0.00,11.00,VWS V14.01,2013-03-17 12:58:00,
2013-03-17 08:00:00,55.7,54.3,29.89,SSE,148,0.0,0.0,95,0.00,,---,0.00,11.00,VWS V14.01,2013-03-17 13:00:00,
2013-03-17 08:02:00,55.7,54.3,29.89,SSE,148,0.0,0.0,95,0.00,,---,0.00,11.00,VWS V14.01,2013-03-17 13:02:00,
2013-03-17 08:03:00,55.7,54.3,29.89,SSE,148,0.0,0.0,95,0.00,,---,0.00,9.00,VWS V14.01,2013-03-17 13:03:00,
2013-03-17 08:05:00,55.8,54.4,29.89,SSE,148,0.0,0.0,95,0.00,,---,0.00,9.00,VWS V14.01,2013-03-17 13:05:00,
2013-03-17 08:08:00,55.8,54.4,29.89,SSE,148,0.0,0.0,95,0.00,,---,0.00,11.00,VWS V14.01,2013-03-17 13:08:00,
2013-03-17 08:09:00,55.8,54.4,29.89,SSE,148,0.0,0.0,95,0.00,,---,0.00,9.00,VWS V14.01,2013-03-17 13:09:00,
2013-03-17 08:12:00,55.9,54.5,29.89,SSE,148,0.0,0.0,95,0.00,,---,0.00,11.00,VWS V14.01,2013-03-17 13:12:00,
2013-03-17 08:13:00,55.9,54.5,29.89,SSE,148,0.0,0.0,95,0.00,,---,0.00,12.00,VWS V14.01,2013-03-17 13:13:00,
2013-03-17 08:14:00,55.9,54.5,29.89,SSE,148,0.0,0.0,95,0.00,,---,0.00,12.00,VWS V14.01,2013-03-17 13:14:00,
2013-03-17 08:17:00,55.9,54.5,29.89,SSE,148,0.0,0.0,95,0.00,,---,0.00,12.00,VWS V14.01,2013-03-17 13:17:00,
2013-03-17 08:18:00,55.9,54.5,29.89,SSE,148,0.0,0.0,95,0.00,,---,0.00,12.00,VWS V14.01,2013-03-17 13:18:00,
2013-03-17 08:19:00,56.0,54.6,29.89,SSE,148,0.0,0.0,95,0.00,,---,0.00,12.00,VWS V14.01,2013-03-17 13:19:00,
2013-03-17 08:23:00,56.1,54.7,29.89,SSE,148,0.0,0.0,95,0.00,,---,0.00,16.00,VWS V14.01,2013-03-17 13:23:00,
2013-03-17 08:25:00,56.2,54.8,29.89,SSE,148,0.0,0.0,95,0.00,,---,0.00,23.00,VWS V14.01,2013-03-17 13:25:00,
2013-03-17 08:28:00,56.2,54.8,29.90,SSE,148,0.0,0.0,95,0.00,,---,0.00,47.00,VWS V14.01,2013-03-17 13:28:00,
2013-03-17 08:29:00,56.2,54.8,29.89,SSE,148,0.0,0.0,95,0.00,,---,0.00,60.00,VWS V14.01,2013-03-17 13:29:00,
2013-03-17 08:30:00,56.3,54.9,29.89,SSE,148,0.0,0.0,95,0.00,,---,0.00,60.00,VWS V14.01,2013-03-17 13:30:00,
2013-03-17 08:31:00,56.4,55.0,29.89,SSE,148,0.0,0.0,95,0.00,,---,0.00,97.00,VWS V14.01,2013-03-17 13:31:00,
2013-03-17 08:34:00,56.6,55.5,29.89,SSE,148,0.0,0.0,96,0.00,,---,0.00,81.00,VWS V14.01,2013-03-17 13:34:00,
2013-03-17 08:35:00,56.6,55.5,29.89,SSE,148,0.0,0.0,96,0.00,,---,0.00,88.00,VWS V14.01,2013-03-17 13:35:00,
2013-03-17 08:37:00,56.8,55.7,29.90,SSE,148,0.0,0.0,96,0.00,,---,0.00,97.00,VWS V14.01,2013-03-17 13:37:00,
2013-03-17 08:40:00,57.0,55.9,29.90,SSE,148,0.0,0.0,96,0.00,,---,0.00,139.00,VWS V14.01,2013-03-17 13:40:00,
2013-03-17 08:42:00,57.2,56.1,29.90,SSE,148,0.0,0.0,96,0.00,,---,0.00,127.00,VWS V14.01,2013-03-17 13:42:00,
2013-03-17 08:43:00,57.3,56.2,29.90,SSE,148,0.0,0.0,96,0.00,,---,0.00,128.00,VWS V14.01,2013-03-17 13:43:00,
2013-03-17 08:45:00,57.5,56.4,29.90,SSE,148,0.0,0.0,96,0.00,,---,0.00,90.00,VWS V14.01,2013-03-17 13:45:00,
2013-03-17 08:48:00,57.8,56.7,29.90,SSE,148,0.0,0.0,96,0.00,,---,0.00,130.00,VWS V14.01,2013-03-17 13:48:00,
2013-03-17 08:49:00,57.9,56.8,29.90,SSE,148,0.0,0.0,96,0.00,,---,0.00,130.00,VWS V14.01,2013-03-17 13:49:00,
2013-03-17 08:51:00,58.1,57.0,29.90,SSE,148,0.0,0.0,96,0.00,,---,0.00,118.00,VWS V14.01,2013-03-17 13:51:00,
2013-03-17 08:54:00,58.6,57.8,29.90,SSE,148,0.0,0.0,97,0.00,,---,0.00,127.00,VWS V14.01,2013-03-17 13:54:00,
2013-03-17 08:55:00,58.8,58.0,29.90,SSE,148,0.0,0.0,97,0.00,,---,0.00,134.00,VWS V14.01,2013-03-17 13:55:00,
2013-03-17 08:57:00,59.3,58.5,29.90,SSE,148,0.0,1.0,97,0.00,,---,0.00,109.00,VWS V14.01,2013-03-17 13:57:00,
2013-03-17 08:59:00,60.4,59.5,29.90,SSE,148,0.0,1.0,97,0.00,,---,0.00,148.00,VWS V14.01,2013-03-17 13:59:00,
2013-03-17 09:00:00,60.4,59.5,29.90,SSE,148,0.0,1.0,97,0.00,,---,0.00,148.00,VWS V14.01,2013-03-17 14:00:00,
2013-03-17 09:01:00,61.4,60.5,29.90,SSE,148,0.0,2.0,97,0.00,,---,0.00,107.00,VWS V14.01,2013-03-17 14:01:00,
2013-03-17 09:03:00,62.3,61.7,29.90,SSE,148,1.0,2.0,98,0.00,,---,0.00,137.00,VWS V14.01,2013-03-17 14:03:00,
2013-03-17 09:05:00,62.7,61.8,29.90,SSE,148,0.0,2.0,97,0.00,,---,0.00,130.00,VWS V14.01,2013-03-17 14:05:00,
2013-03-17 09:06:00,62.9,62.0,29.90,SSE,148,0.0,2.0,97,0.00,,---,0.00,130.00,VWS V14.01,2013-03-17 14:06:00,
2013-03-17 09:08:00,63.3,62.4,29.90,SSE,148,0.0,2.0,97,0.00,,---,0.00,162.00,VWS V14.01,2013-03-17 14:08:00,
2013-03-17 09:10:00,63.2,62.3,29.90,East,88,0.0,3.0,97,0.00,,---,0.00,72.00,VWS V14.01,2013-03-17 14:10:00,
2013-03-17 09:11:00,63.3,62.4,29.90,East,94,1.0,3.0,97,0.00,,---,0.00,70.00,VWS V14.01,2013-03-17 14:11:00,
2013-03-17 09:12:00,63.3,62.1,29.90,East,96,0.0,3.0,96,0.00,,---,0.00,79.00,VWS V14.01,2013-03-17 14:12:00,
2013-03-17 09:15:00,63.6,62.4,29.91,SE,144,2.0,4.0,96,0.00,,---,0.00,62.00,VWS V14.01,2013-03-17 14:15:00,
2013-03-17 09:17:00,63.6,62.4,29.90,SE,143,0.0,4.0,96,0.00,,---,0.00,134.00,VWS V14.01,2013-03-17 14:17:00,
2013-03-17 09:18:00,63.7,62.5,29.90,SE,143,0.0,4.0,96,0.00,,---,0.00,121.00,VWS V14.01,2013-03-17 14:18:00,
2013-03-17 09:21:00,64.1,62.9,29.91,SSE,153,0.0,4.0,96,0.00,,---,0.00,183.00,VWS V14.01,2013-03-17 14:21:00,
2013-03-17 09:22:00,64.1,62.9,29.91,SSE,153,0.0,4.0,96,0.00,,---,0.00,160.00,VWS V14.01,2013-03-17 14:22:00,
2013-03-17 09:27:00,64.7,63.5,29.91,ESE,103,2.0,4.0,96,0.00,,---,0.00,105.00,VWS V14.01,2013-03-17 14:27:00,
2013-03-17 09:29:00,65.0,63.8,29.91,South,186,3.0,4.0,96,0.00,,---,0.00,104.00,VWS V14.01,2013-03-17 14:29:00,
2013-03-17 09:32:00,65.0,63.5,29.91,SSE,157,3.0,3.0,95,0.00,,---,0.00,83.00,VWS V14.01,2013-03-17 14:32:00,
2013-03-17 09:33:00,65.0,63.5,29.91,SSE,163,3.0,4.0,95,0.00,,---,0.00,88.00,VWS V14.01,2013-03-17 14:33:00,
2013-03-17 09:34:00,64.9,63.4,29.91,SSE,163,4.0,5.0,95,0.00,,---,0.00,162.00,VWS V14.01,2013-03-17 14:34:00,
2013-03-17 09:36:00,65.0,63.5,29.91,SSE,155,2.0,5.0,95,0.00,,---,0.00,142.00,VWS V14.01,2013-03-17 14:36:00,
2013-03-17 09:37:00,65.0,63.5,29.91,SSE,157,4.0,5.0,95,0.00,,---,0.00,172.00,VWS V14.01,2013-03-17 14:37:00,
2013-03-17 09:38:00,65.1,63.6,29.91,SE,139,3.0,6.0,95,0.00,,---,0.00,178.00,VWS V14.01,2013-03-17 14:38:00,
2013-03-17 09:40:00,65.4,64.2,29.91,SSE,148,2.0,6.0,96,0.00,,---,0.00,120.00,VWS V14.01,2013-03-17 14:40:00,
2013-03-17 09:44:00,65.6,64.1,29.91,SE,140,6.0,8.0,95,0.00,,---,0.00,179.00,VWS V14.01,2013-03-17 14:44:00,
2013-03-17 09:45:00,65.6,64.1,29.91,South,171,4.0,8.0,95,0.00,,---,0.00,178.00,VWS V14.01,2013-03-17 14:45:00,
2013-03-17 09:46:00,65.7,64.2,29.91,SSW,198,5.0,8.0,95,0.00,,---,0.00,142.00,VWS V14.01,2013-03-17 14:46:00,
2013-03-17 09:49:00,65.8,64.3,29.91,SSE,159,3.0,8.0,95,0.00,,---,0.00,197.00,VWS V14.01,2013-03-17 14:49:00,
2013-03-17 09:52:00,66.0,64.5,29.91,SSE,168,5.0,8.0,95,0.00,,---,0.00,130.00,VWS V14.01,2013-03-17 14:52:00,
2013-03-17 09:54:00,66.2,64.7,29.91,SSE,147,3.0,8.0,95,0.00,,---,0.00,264.00,VWS V14.01,2013-03-17 14:54:00,
2013-03-17 09:59:00,66.8,65.3,29.90,SE,135,3.0,8.0,95,0.00,,---,0.00,171.00,VWS V14.01,2013-03-17 14:59:00,
2013-03-17 10:00:00,66.8,65.3,29.90,SE,132,2.0,4.0,95,0.00,,---,0.00,171.00,VWS V14.01,2013-03-17 15:00:00,
2013-03-17 10:05:00,67.2,65.4,29.91,SE,130,3.0,6.0,94,0.00,,---,0.00,292.00,VWS V14.01,2013-03-17 15:05:00,
2013-03-17 10:07:00,67.2,65.1,29.91,SSE,151,2.0,8.0,93,0.00,,---,0.00,220.00,VWS V14.01,2013-03-17 15:07:00,
2013-03-17 10:10:00,67.4,65.6,29.91,SSE,168,0.0,8.0,94,0.00,,---,0.00,183.00,VWS V14.01,2013-03-17 15:10:00,
2013-03-17 10:12:00,67.7,65.6,29.91,SE,146,3.0,8.0,93,0.00,,---,0.00,160.00,VWS V14.01,2013-03-17 15:12:00,
2013-03-17 10:14:00,67.7,65.6,29.91,ESE,119,4.0,8.0,93,0.00,,---,0.00,163.00,VWS V14.01,2013-03-17 15:14:00,
2013-03-17 10:17:00,67.8,65.4,29.90,ESE,111,3.0,11.0,92,0.00,,---,0.00,160.00,VWS V14.01,2013-03-17 15:17:00,
2013-03-17 10:19:00,68.0,65.6,29.90,SE,132,0.0,11.0,92,0.00,,---,0.00,209.00,VWS V14.01,2013-03-17 15:19:00,
2013-03-17 10:23:00,68.5,66.1,29.90,SE,138,3.0,11.0,92,0.00,,---,0.00,244.00,VWS V14.01,2013-03-17 15:23:00,
2013-03-17 10:24:00,68.5,65.8,29.90,SSE,165,2.0,11.0,91,0.00,,---,0.00,288.00,VWS V14.01,2013-03-17 15:24:00,
2013-03-17 10:26:00,68.6,65.9,29.90,SSE,147,6.0,11.0,91,0.00,,---,0.00,304.00,VWS V14.01,2013-03-17 15:26:00,
2013-03-17 10:28:00,68.9,65.8,29.90,SSW,202,1.0,11.0,90,0.00,,---,0.00,283.00,VWS V14.01,2013-03-17 15:28:00,
2013-03-17 10:29:00,68.9,65.8,29.90,SE,140,0.0,11.0,90,0.00,,---,0.00,316.00,VWS V14.01,2013-03-17 15:29:00,
2013-03-17 10:30:00,68.9,65.8,29.90,SE,140,0.0,11.0,90,0.00,,---,0.00,316.00,VWS V14.01,2013-03-17 15:30:00,
2013-03-17 10:31:00,69.2,66.2,29.90,South,174,5.0,7.0,90,0.00,,---,0.00,276.00,VWS V14.01,2013-03-17 15:31:00,
2013-03-17 10:35:00,69.3,65.9,29.90,SE,134,2.0,8.0,89,0.00,,---,0.00,278.00,VWS V14.01,2013-03-17 15:35:00,
2013-03-17 10:37:00,69.7,66.3,29.90,SSE,150,5.0,8.0,89,0.00,,---,0.00,338.00,VWS V14.01,2013-03-17 15:37:00,
2013-03-17 10:38:00,69.7,66.0,29.90,SE,146,2.0,8.0,88,0.00,,---,0.00,345.00,VWS V14.01,2013-03-17 15:38:00,
2013-03-17 10:40:00,70.0,66.6,29.90,SSW,199,3.0,8.0,89,0.00,,---,0.00,367.00,VWS V14.01,2013-03-17 15:40:00,
2013-03-17 10:41:00,70.1,66.7,29.90,South,186,2.0,8.0,89,0.00,,---,0.00,367.00,VWS V14.01,2013-03-17 15:41:00,
2013-03-17 10:46:00,70.7,66.7,29.90,SSE,157,5.0,9.0,87,0.00,,---,0.00,561.00,VWS V14.01,2013-03-17 15:46:00,
2013-03-17 10:47:00,70.8,66.4,29.89,SSE,159,6.0,9.0,86,0.00,,---,0.00,561.00,VWS V14.01,2013-03-17 15:47:00,
2013-03-17 10:50:00,71.2,66.8,29.90,SSE,149,2.0,9.0,86,0.00,,---,0.00,260.00,VWS V14.01,2013-03-17 15:50:00,
2013-03-17 10:51:00,71.2,66.5,29.89,SSE,162,3.0,9.0,85,0.00,,---,0.00,260.00,VWS V14.01,2013-03-17 15:51:00,
2013-03-17 10:53:00,71.5,66.8,29.89,SSE,166,4.0,9.0,85,0.00,,---,0.00,339.00,VWS V14.01,2013-03-17 15:53:00,
2013-03-17 10:55:00,72.0,67.2,29.89,SE,144,0.0,9.0,85,0.00,,---,0.00,262.00,VWS V14.01,2013-03-17 15:55:00,
2013-03-17 10:56:00,72.3,67.2,29.89,SE,135,2.0,9.0,84,0.00,,---,0.00,262.00,VWS V14.01,2013-03-17 15:56:00,
2013-03-17 10:57:00,72.4,67.3,29.89,SSE,150,1.0,9.0,84,0.00,,---,0.00,230.00,VWS V14.01,2013-03-17 15:57:00,
2013-03-17 10:59:00,72.3,66.5,29.89,SE,130,6.0,9.0,82,0.00,,---,0.00,230.00,VWS V14.01,2013-03-17 15:59:00,
2013-03-17 11:00:00,72.2,66.4,29.89,SSW,208,4.0,9.0,82,0.00,,---,0.00,230.00,VWS V14.01,2013-03-17 16:00:00,
2013-03-17 11:02:00,72.1,66.3,29.89,SSE,164,2.0,6.0,82,0.00,,---,0.00,316.00,VWS V14.01,2013-03-17 16:02:00,
2013-03-17 11:04:00,72.7,67.2,29.89,ESE,123,2.0,6.0,83,0.00,,---,0.00,427.00,VWS V14.01,2013-03-17 16:04:00,
2013-03-17 11:07:00,72.8,66.6,29.89,SSE,161,0.0,6.0,81,0.00,,---,0.00,169.00,VWS V14.01,2013-03-17 16:07:00,
2013-03-17 11:09:00,72.6,66.4,29.89,SSE,153,4.0,6.0,81,0.00,,---,0.00,151.00,VWS V14.01,2013-03-17 16:09:00,
2013-03-17 11:12:00,72.3,65.8,29.88,South,169,3.0,8.0,80,0.00,,---,0.00,213.00,VWS V14.01,2013-03-17 16:12:00,
2013-03-17 11:13:00,72.2,66.1,29.88,SE,126,1.0,10.0,81,0.00,,---,0.00,234.00,VWS V14.01,2013-03-17 16:13:00,
2013-03-17 11:16:00,72.3,66.2,29.88,SE,145,3.0,10.0,81,0.00,,---,0.00,271.00,VWS V14.01,2013-03-17 16:16:00,
2013-03-17 11:17:00,72.5,66.3,29.88,SE,146,4.0,10.0,81,0.00,,---,0.00,875.00,VWS V14.01,2013-03-17 16:17:00,
2013-03-17 11:21:00,74.4,67.1,29.88,NE,50,3.0,10.0,78,0.00,,---,0.00,907.00,VWS V14.01,2013-03-17 16:21:00,
2013-03-17 11:23:00,75.2,66.7,29.88,SE,144,4.0,10.0,75,0.00,,---,0.00,909.00,VWS V14.01,2013-03-17 16:23:00,
2013-03-17 11:24:00,75.4,66.5,29.88,SE,130,6.0,10.0,74,0.00,,---,0.00,909.00,VWS V14.01,2013-03-17 16:24:00,
2013-03-17 11:26:00,75.0,65.8,29.88,SSW,196,5.0,12.0,73,0.00,,---,0.00,216.00,VWS V14.01,2013-03-17 16:26:00,
2013-03-17 11:28:00,74.8,65.6,29.88,South,177,4.0,12.0,73,0.00,,---,0.00,155.00,VWS V14.01,2013-03-17 16:28:00,
2013-03-17 11:30:00,74.3,65.1,29.88,SSE,147,5.0,5.0,73,0.00,,---,0.00,156.00,VWS V14.01,2013-03-17 16:30:00,
2013-03-17 11:32:00,73.6,65.2,29.88,SSE,161,4.0,7.0,75,0.00,,---,0.00,137.00,VWS V14.01,2013-03-17 16:32:00,
2013-03-17 11:34:00,73.2,65.2,29.88,SSW,208,3.0,7.0,76,0.00,,---,0.00,200.00,VWS V14.01,2013-03-17 16:34:00,
2013-03-17 11:39:00,73.5,65.9,29.88,SE,138,3.0,7.0,77,0.00,,---,0.00,160.00,VWS V14.01,2013-03-17 16:39:00,
2013-03-17 11:42:00,73.7,65.3,29.88,SSE,163,4.0,7.0,75,0.00,,---,0.00,151.00,VWS V14.01,2013-03-17 16:42:00,
2013-03-17 11:46:00,75.0,65.8,29.88,South,182,4.0,10.0,73,0.00,,---,0.00,863.00,VWS V14.01,2013-03-17 16:46:00,
2013-03-17 11:47:00,75.1,65.9,29.88,ESE,105,5.0,10.0,73,0.00,,---,0.00,863.00,VWS V14.01,2013-03-17 16:47:00,
2013-03-17 11:48:00,75.7,66.0,29.88,SSW,200,1.0,10.0,72,0.00,,---,0.00,921.00,VWS V14.01,2013-03-17 16:48:00,
2013-03-17 11:52:00,76.4,65.5,29.88,SE,143,7.0,11.0,69,0.00,,---,0.00,960.00,VWS V14.01,2013-03-17 16:52:00,
2013-03-17 11:53:00,76.6,65.3,29.88,SE,134,6.0,12.0,68,0.00,,---,0.00,967.00,VWS V14.01,2013-03-17 16:53:00,
2013-03-17 11:57:00,77.7,64.6,29.87,SSW,208,6.0,12.0,64,0.00,,---,0.00,918.00,VWS V14.01,2013-03-17 16:57:00,
2013-03-17 11:58:00,77.6,64.5,29.87,South,173,5.0,12.0,64,0.00,,---,0.00,918.00,VWS V14.01,2013-03-17 16:58:00,
2013-03-17 12:00:00,77.6,64.9,29.87,South,189,2.0,2.0,65,0.00,,---,0.00,991.00,VWS V14.01,2013-03-17 17:00:00,
2013-03-17 12:02:00,79.4,66.2,29.87,South,188,3.0,3.0,64,0.00,,---,0.00,981.00,VWS V14.01,2013-03-17 17:02:00,
2013-03-17 12:04:00,79.2,65.5,29.87,ESE,121,7.0,10.0,63,0.00,,---,0.00,988.00,VWS V14.01,2013-03-17 17:04:00,
2013-03-17 12:05:00,79.3,66.1,29.87,South,178,7.0,12.0,64,0.00,,---,0.00,988.00,VWS V14.01,2013-03-17 17:05:00,
2013-03-17 12:08:00,78.6,65.0,29.87,South,182,4.0,12.0,63,0.00,,---,0.00,301.00,VWS V14.01,2013-03-17 17:08:00,
2013-03-17 12:09:00,78.2,64.1,29.87,ESE,121,8.0,12.0,62,0.00,,---,0.00,274.00,VWS V14.01,2013-03-17 17:09:00,
2013-03-17 12:10:00,77.8,63.8,29.87,ESE,123,9.0,12.0,62,0.00,,---,0.00,302.00,VWS V14.01,2013-03-17 17:10:00,
2013-03-17 12:13:00,77.0,63.9,29.87,South,171,9.0,13.0,64,0.00,,---,0.00,302.00,VWS V14.01,2013-03-17 17:13:00,
2013-03-17 12:14:00,77.1,64.0,29.87,SSW,193,5.0,13.0,64,0.00,,---,0.00,327.00,VWS V14.01,2013-03-17 17:14:00,
2013-03-17 12:15:00,77.2,64.1,29.87,SSE,167,8.0,13.0,64,0.00,,---,0.00,327.00,VWS V14.01,2013-03-17 17:15:00,
2013-03-17 12:16:00,77.2,64.5,29.86,WSW,245,3.0,13.0,65,0.00,,---,0.00,327.00,VWS V14.01,2013-03-17 17:16:00,
2013-03-17 12:18:00,77.5,64.4,29.86,South,185,4.0,13.0,64,0.00,,---,0.00,341.00,VWS V14.01,2013-03-17 17:18:00,
2013-03-17 12:20:00,77.7,64.6,29.86,South,182,6.0,13.0,64,0.00,,---,0.00,341.00,VWS V14.01,2013-03-17 17:20:00,
2013-03-17 12:22:00,77.6,64.9,29.86,SSE,154,4.0,13.0,65,0.00,,---,0.00,244.00,VWS V14.01,2013-03-17 17:22:00,
2013-03-17 12:24:00,77.6,64.9,29.86,SE,140,6.0,13.0,65,0.00,,---,0.00,244.00,VWS V14.01,2013-03-17 17:24:00,
2013-03-17 12:27:00,78.5,66.2,29.86,SE,142,1.0,13.0,66,0.00,,---,0.00,958.00,VWS V14.01,2013-03-17 17:27:00,
2013-03-17 12:29:00,79.1,65.4,29.86,SSW,194,1.0,13.0,63,0.00,,---,0.00,958.00,VWS V14.01,2013-03-17 17:29:00,
2013-03-17 12:30:00,79.3,64.7,29.86,South,187,4.0,6.0,61,0.00,,---,0.00,967.00,VWS V14.01,2013-03-17 17:30:00,
2013-03-17 12:33:00,79.1,64.5,29.86,South,181,3.0,10.0,61,0.00,,---,0.00,970.00,VWS V14.01,2013-03-17 17:33:00,
2013-03-17 12:34:00,79.7,66.0,29.86,East,91,8.0,10.0,63,0.00,,---,0.00,988.00,VWS V14.01,2013-03-17 17:34:00,
2013-03-17 12:35:00,80.1,65.9,29.86,ESE,119,8.0,11.0,62,0.00,,---,0.00,1014.00,VWS V14.01,2013-03-17 17:35:00,
2013-03-17 12:36:00,80.3,64.7,29.86,ESE,119,2.0,11.0,59,0.00,,---,0.00,1018.00,VWS V14.01,2013-03-17 17:36:00,
2013-03-17 12:39:00,79.5,63.4,29.86,SSW,196,4.0,13.0,58,0.00,,---,0.00,260.00,VWS V14.01,2013-03-17 17:39:00,
2013-03-17 12:40:00,79.2,63.7,29.86,SE,142,13.0,13.0,59,0.00,,---,0.00,1042.00,VWS V14.01,2013-03-17 17:40:00,
2013-03-17 12:41:00,78.9,63.4,29.86,SE,138,7.0,14.0,59,0.00,,---,0.00,1042.00,VWS V14.01,2013-03-17 17:41:00,
2013-03-17 12:45:00,78.2,63.2,29.86,SSW,193,5.0,14.0,60,0.00,,---,0.00,257.00,VWS V14.01,2013-03-17 17:45:00,
2013-03-17 12:47:00,78.1,63.6,29.86,SSE,157,4.0,14.0,61,0.00,,---,0.00,229.00,VWS V14.01,2013-03-17 17:47:00,
2013-03-17 12:51:00,77.3,62.8,29.85,South,175,4.0,14.0,61,0.00,,---,0.00,167.00,VWS V14.01,2013-03-17 17:51:00,
2013-03-17 12:52:00,77.2,63.2,29.85,SE,142,11.0,14.0,62,0.00,,---,0.00,260.00,VWS V14.01,2013-03-17 17:52:00,
2013-03-17 12:55:00,78.0,65.3,29.85,SE,141,3.0,14.0,65,0.00,,---,0.00,997.00,VWS V14.01,2013-03-17 17:55:00,
2013-03-17 12:56:00,78.4,64.3,29.85,SW,227,2.0,14.0,62,0.00,,---,0.00,397.00,VWS V14.01,2013-03-17 17:56:00,
2013-03-17 12:57:00,78.7,65.1,29.85,SSE,152,2.0,14.0,63,0.00,,---,0.00,397.00,VWS V14.01,2013-03-17 17:57:00,
2013-03-17 12:58:00,79.0,64.9,29.85,SW,215,5.0,14.0,62,0.00,,---,0.00,304.00,VWS V14.01,2013-03-17 17:58:00,
2013-03-17 13:00:00,78.9,64.8,29.85,South,170,4.0,14.0,62,0.00,,---,0.00,278.00,VWS V14.01,2013-03-17 18:00:00,
2013-03-17 13:02:00,78.9,64.3,29.85,SSE,159,10.0,13.0,61,0.00,,---,0.00,274.00,VWS V14.01,2013-03-17 18:02:00,
2013-03-17 13:05:00,78.6,64.5,29.85,SE,140,7.0,13.0,62,0.00,,---,0.00,380.00,VWS V14.01,2013-03-17 18:05:00,
2013-03-17 13:07:00,78.2,64.6,29.85,SSE,152,1.0,13.0,63,0.00,,---,0.00,211.00,VWS V14.01,2013-03-17 18:07:00,
2013-03-17 13:08:00,78.1,64.5,29.85,South,169,0.0,13.0,63,0.00,,---,0.00,207.00,VWS V14.01,2013-03-17 18:08:00,
2013-03-17 13:11:00,77.6,64.5,29.85,SE,136,5.0,13.0,64,0.00,,---,0.00,272.00,VWS V14.01,2013-03-17 18:11:00,
2013-03-17 13:13:00,77.9,64.8,29.85,SSE,154,5.0,13.0,64,0.00,,---,0.00,345.00,VWS V14.01,2013-03-17 18:13:00,
2013-03-17 13:15:00,78.2,64.6,29.85,ESE,113,5.0,13.0,63,0.00,,---,0.00,366.00,VWS V14.01,2013-03-17 18:15:00,
2013-03-17 13:17:00,78.6,65.4,29.85,East,98,9.0,13.0,64,0.00,,---,0.00,1037.00,VWS V14.01,2013-03-17 18:17:00,
2013-03-17 13:18:00,78.7,65.1,29.85,South,191,7.0,13.0,63,0.00,,---,0.00,1037.00,VWS V14.01,2013-03-17 18:18:00,
2013-03-17 13:19:00,78.6,65.0,29.85,South,185,6.0,13.0,63,0.00,,---,0.00,244.00,VWS V14.01,2013-03-17 18:19:00,
2013-03-17 13:20:00,78.3,64.7,29.85,SE,146,2.0,13.0,63,0.00,,---,0.00,230.00,VWS V14.01,2013-03-17 18:20:00,
2013-03-17 13:22:00,77.8,65.1,29.85,South,189,5.0,13.0,65,0.00,,---,0.00,209.00,VWS V14.01,2013-03-17 18:22:00,
2013-03-17 13:24:00,77.4,65.2,29.84,SSW,204,4.0,13.0,66,0.00,,---,0.00,267.00,VWS V14.01,2013-03-17 18:24:00,
2013-03-17 13:26:00,77.2,65.0,29.84,South,175,5.0,13.0,66,0.00,,---,0.00,1039.00,VWS V14.01,2013-03-17 18:26:00,
2013-03-17 13:27:00,77.3,65.5,29.84,SSE,157,5.0,13.0,67,0.00,,---,0.00,1039.00,VWS V14.01,2013-03-17 18:27:00,
2013-03-17 13:29:00,78.3,65.1,29.84,SE,133,11.0,13.0,64,0.00,,---,0.00,977.00,VWS V14.01,2013-03-17 18:29:00,
2013-03-17 13:30:00,78.3,65.1,29.84,SSE,159,8.0,13.0,64,0.00,,---,0.00,944.00,VWS V14.01,2013-03-17 18:30:00,
2013-03-17 13:32:00,78.8,65.6,29.84,SSW,197,1.0,11.0,64,0.00,,---,0.00,932.00,VWS V14.01,2013-03-17 18:32:00,
2013-03-17 13:34:00,79.0,65.8,29.84,SSE,159,4.0,15.0,64,0.00,,---,0.00,896.00,VWS V14.01,2013-03-17 18:34:00,
2013-03-17 13:35:00,79.2,66.0,29.84,SSE,161,8.0,15.0,64,0.00,,---,0.00,896.00,VWS V14.01,2013-03-17 18:35:00,
2013-03-17 13:37:00,79.7,66.0,29.83,SSW,196,5.0,15.0,63,0.00,,---,0.00,912.00,VWS V14.01,2013-03-17 18:37:00,
2013-03-17 13:38:00,79.9,66.2,29.84,SSW,194,3.0,15.0,63,0.00,,---,0.00,912.00,VWS V14.01,2013-03-17 18:38:00,
2013-03-17 13:39:00,80.2,66.0,29.84,South,182,3.0,15.0,62,0.00,,---,0.00,840.00,VWS V14.01,2013-03-17 18:39:00,
2013-03-17 13:41:00,80.2,66.5,29.83,SSE,151,4.0,15.0,63,0.00,,---,0.00,840.00,VWS V14.01,2013-03-17 18:41:00,
2013-03-17 13:42:00,80.2,66.5,29.83,SSE,163,3.0,15.0,63,0.00,,---,0.00,1011.00,VWS V14.01,2013-03-17 18:42:00,
2013-03-17 13:43:00,80.3,66.6,29.83,ESE,115,4.0,15.0,63,0.00,,---,0.00,1011.00,VWS V14.01,2013-03-17 18:43:00,
2013-03-17 13:46:00,80.7,66.5,29.83,South,182,5.0,15.0,62,0.00,,---,0.00,967.00,VWS V14.01,2013-03-17 18:46:00,
2013-03-17 13:50:00,80.4,66.2,29.83,West,265,3.0,15.0,62,0.00,,---,0.00,944.00,VWS V14.01,2013-03-17 18:50:00,
2013-03-17 13:53:00,80.2,66.5,29.83,SSE,168,4.0,15.0,63,0.00,,---,0.00,946.00,VWS V14.01,2013-03-17 18:53:00,
2013-03-17 13:56:00,80.1,65.4,29.83,SSE,149,6.0,15.0,61,0.00,,---,0.00,991.00,VWS V14.01,2013-03-17 18:56:00,
2013-03-17 13:58:00,79.8,65.6,29.83,South,181,5.0,15.0,62,0.00,,---,0.00,325.00,VWS V14.01,2013-03-17 18:58:00,
2013-03-17 13:59:00,79.8,65.6,29.83,SSW,192,3.0,15.0,62,0.00,,---,0.00,668.00,VWS V14.01,2013-03-17 18:59:00,
2013-03-17 14:00:00,79.9,66.2,29.83,SSW,211,10.0,15.0,63,0.00,,---,0.00,668.00,VWS V14.01,2013-03-17 19:00:00,
2013-03-17 14:03:00,79.1,65.4,29.82,SSE,154,11.0,15.0,63,0.00,,---,0.00,209.00,VWS V14.01,2013-03-17 19:03:00,
2013-03-17 14:04:00,78.7,65.1,29.82,SE,134,3.0,15.0,63,0.00,,---,0.00,213.00,VWS V14.01,2013-03-17 19:04:00,
2013-03-17 14:05:00,78.4,65.2,29.82,South,184,4.0,15.0,64,0.00,,---,0.00,253.00,VWS V14.01,2013-03-17 19:05:00,
2013-03-17 14:08:00,78.1,64.9,29.82,SSE,161,5.0,15.0,64,0.00,,---,0.00,269.00,VWS V14.01,2013-03-17 19:08:00,
2013-03-17 14:10:00,77.9,65.2,29.82,SSE,164,2.0,15.0,65,0.00,,---,0.00,318.00,VWS V14.01,2013-03-17 19:10:00,
2013-03-17 14:11:00,77.8,65.1,29.82,SSE,165,2.0,15.0,65,0.00,,---,0.00,329.00,VWS V14.01,2013-03-17 19:11:00,
2013-03-17 14:14:00,78.2,65.5,29.81,South,169,1.0,15.0,65,0.00,,---,0.00,355.00,VWS V14.01,2013-03-17 19:14:00,
2013-03-17 14:17:00,78.9,66.2,29.81,SSE,157,5.0,15.0,65,0.00,,---,0.00,320.00,VWS V14.01,2013-03-17 19:17:00,
2013-03-17 14:19:00,79.0,65.8,29.81,South,169,3.0,15.0,64,0.00,,---,0.00,341.00,VWS V14.01,2013-03-17 19:19:00,
2013-03-17 14:21:00,79.3,66.1,29.81,South,173,6.0,15.0,64,0.00,,---,0.00,322.00,VWS V14.01,2013-03-17 19:21:00,
2013-03-17 14:23:00,79.9,67.1,29.81,SSE,158,5.0,15.0,65,0.00,,---,0.00,281.00,VWS V14.01,2013-03-17 19:23:00,
2013-03-17 14:24:00,80.5,66.8,29.81,SSW,202,5.0,15.0,63,0.00,,---,0.00,271.00,VWS V14.01,2013-03-17 19:24:00,
2013-03-17 14:25:00,80.5,66.3,29.81,South,173,3.0,15.0,62,0.00,,---,0.00,279.00,VWS V14.01,2013-03-17 19:25:00,
2013-03-17 14:27:00,79.7,65.1,29.81,ESE,115,3.0,15.0,61,0.00,,---,0.00,258.00,VWS V14.01,2013-03-17 19:27:00,
2013-03-17 14:28:00,79.2,65.1,29.81,SE,142,3.0,15.0,62,0.00,,---,0.00,243.00,VWS V14.01,2013-03-17 19:28:00,
2013-03-17 14:30:00,78.5,65.3,29.81,SSE,147,5.0,8.0,64,0.00,,---,0.00,250.00,VWS V14.01,2013-03-17 19:30:00,
2013-03-17 14:31:00,78.2,65.0,29.81,SSE,158,4.0,9.0,64,0.00,,---,0.00,236.00,VWS V14.01,2013-03-17 19:31:00,
2013-03-17 14:33:00,77.9,65.2,29.81,SSW,203,3.0,9.0,65,0.00,,---,0.00,251.00,VWS V14.01,2013-03-17 19:33:00,
2013-03-17 14:35:00,77.8,65.5,29.80,SE,142,6.0,9.0,66,0.00,,---,0.00,243.00,VWS V14.01,2013-03-17 19:35:00,
2013-03-17 14:37:00,77.9,65.6,29.81,SW,225,1.0,9.0,66,0.00,,---,0.00,278.00,VWS V14.01,2013-03-17 19:37:00,
2013-03-17 14:39:00,78.0,65.7,29.80,SSW,198,6.0,9.0,66,0.00,,---,0.00,388.00,VWS V14.01,2013-03-17 19:39:00,
2013-03-17 14:40:00,78.5,66.2,29.80,SSE,158,6.0,13.0,66,0.00,,---,0.00,338.00,VWS V14.01,2013-03-17 19:40:00,
2013-03-17 14:44:00,78.9,65.7,29.80,SE,145,2.0,13.0,64,0.00,,---,0.00,230.00,VWS V14.01,2013-03-17 19:44:00,
2013-03-17 14:45:00,78.8,65.6,29.80,SSE,152,3.0,13.0,64,0.00,,---,0.00,221.00,VWS V14.01,2013-03-17 19:45:00,
2013-03-17 14:46:00,78.5,65.3,29.80,SE,142,6.0,13.0,64,0.00,,---,0.00,216.00,VWS V14.01,2013-03-17 19:46:00,
2013-03-17 14:49:00,78.3,65.6,29.80,SE,130,8.0,13.0,65,0.00,,---,0.00,232.00,VWS V14.01,2013-03-17 19:49:00,
2013-03-17 14:50:00,78.3,65.6,29.80,ESE,118,4.0,13.0,65,0.00,,---,0.00,209.00,VWS V14.01,2013-03-17 19:50:00,
2013-03-17 14:51:00,78.3,65.6,29.80,ESE,116,5.0,13.0,65,0.00,,---,0.00,214.00,VWS V14.01,2013-03-17 19:51:00,
2013-03-17 14:53:00,78.0,65.3,29.80,SSE,147,4.0,18.0,65,0.00,,---,0.00,330.00,VWS V14.01,2013-03-17 19:53:00,
2013-03-17 14:57:00,78.5,66.2,29.79,South,181,10.0,18.0,66,0.00,,---,0.00,330.00,VWS V14.01,2013-03-17 19:57:00,
2013-03-17 14:58:00,78.5,66.2,29.80,SSW,205,4.0,18.0,66,0.00,,---,0.00,330.00,VWS V14.01,2013-03-17 19:58:00,
2013-03-17 14:59:00,78.4,65.7,29.79,ESE,119,3.0,18.0,65,0.00,,---,0.00,912.00,VWS V14.01,2013-03-17 19:59:00,
2013-03-17 15:03:00,79.6,66.8,29.79,SE,139,5.0,9.0,65,0.00,,---,0.00,881.00,VWS V14.01,2013-03-17 20:03:00,
2013-03-17 15:04:00,80.3,67.0,29.79,SE,134,9.0,10.0,64,0.00,,---,0.00,881.00,VWS V14.01,2013-03-17 20:04:00,
2013-03-17 15:05:00,80.3,66.6,29.79,SW,225,2.0,10.0,63,0.00,,---,0.00,388.00,VWS V14.01,2013-03-17 20:05:00,
2013-03-17 15:09:00,79.5,65.8,29.79,ESE,123,2.0,10.0,63,0.00,,---,0.00,341.00,VWS V14.01,2013-03-17 20:09:00,
2013-03-17 15:10:00,79.4,66.2,29.79,SSE,163,8.0,10.0,64,0.00,,---,0.00,367.00,VWS V14.01,2013-03-17 20:10:00,
2013-03-17 15:11:00,79.2,65.5,29.79,SE,138,6.0,10.0,63,0.00,,---,0.00,367.00,VWS V14.01,2013-03-17 20:11:00,
2013-03-17 15:12:00,79.2,66.0,29.79,South,173,5.0,10.0,64,0.00,,---,0.00,367.00,VWS V14.01,2013-03-17 20:12:00,
2013-03-17 15:14:00,79.2,66.0,29.78,South,180,0.0,13.0,64,0.00,,---,0.00,323.00,VWS V14.01,2013-03-17 20:14:00,
2013-03-17 15:17:00,79.1,65.9,29.78,SE,129,6.0,13.0,64,0.00,,---,0.00,406.00,VWS V14.01,2013-03-17 20:17:00,
2013-03-17 15:18:00,79.1,66.3,29.78,SE,146,6.0,13.0,65,0.00,,---,0.00,345.00,VWS V14.01,2013-03-17 20:18:00,
2013-03-17 15:19:00,79.2,66.0,29.78,SE,136,1.0,13.0,64,0.00,,---,0.00,287.00,VWS V14.01,2013-03-17 20:19:00,
2013-03-17 15:22:00,79.3,66.1,29.78,South,174,3.0,13.0,64,0.00,,---,0.00,248.00,VWS V14.01,2013-03-17 20:22:00,
2013-03-17 15:23:00,79.2,66.0,29.78,SE,132,10.0,14.0,64,0.00,,---,0.00,267.00,VWS V14.01,2013-03-17 20:23:00,
2013-03-17 15:25:00,78.6,66.3,29.78,SSE,161,7.0,14.0,66,0.00,,---,0.00,278.00,VWS V14.01,2013-03-17 20:25:00,
2013-03-17 15:26:00,78.4,66.1,29.78,SE,144,7.0,14.0,66,0.00,,---,0.00,163.00,VWS V14.01,2013-03-17 20:26:00,
2013-03-17 15:27:00,78.3,66.0,29.77,SE,128,5.0,14.0,66,0.00,,---,0.00,163.00,VWS V14.01,2013-03-17 20:27:00,
2013-03-17 15:30:00,78.2,66.4,29.77,ESE,118,4.0,10.0,67,0.00,,---,0.00,283.00,VWS V14.01,2013-03-17 20:30:00,
2013-03-17 15:32:00,78.6,66.3,29.77,East,84,6.0,13.0,66,0.00,,---,0.00,290.00,VWS V14.01,2013-03-17 20:32:00,
2013-03-17 15:33:00,79.1,67.2,29.77,SSE,154,2.0,13.0,67,0.00,,---,0.00,290.00,VWS V14.01,2013-03-17 20:33:00,
2013-03-17 15:35:00,79.3,66.5,29.77,SE,131,7.0,13.0,65,0.00,,---,0.00,257.00,VWS V14.01,2013-03-17 20:35:00,
2013-03-17 15:37:00,79.3,66.5,29.77,SSE,153,5.0,13.0,65,0.00,,---,0.00,257.00,VWS V14.01,2013-03-17 20:37:00,
2013-03-17 15:39:00,79.2,66.4,29.77,SSE,147,10.0,13.0,65,0.00,,---,0.00,369.00,VWS V14.01,2013-03-17 20:39:00,
2013-03-17 15:40:00,79.1,66.3,29.77,ESE,111,4.0,13.0,65,0.00,,---,0.00,369.00,VWS V14.01,2013-03-17 20:40:00,
2013-03-17 15:42:00,79.6,66.8,29.77,SSE,161,7.0,13.0,65,0.00,,---,0.00,325.00,VWS V14.01,2013-03-17 20:42:00,
2013-03-17 15:44:00,79.8,66.6,29.77,South,186,8.0,13.0,64,0.00,,---,0.00,325.00,VWS V14.01,2013-03-17 20:44:00,
2013-03-17 15:45:00,79.4,66.2,29.77,SE,130,7.0,13.0,64,0.00,,---,0.00,371.00,VWS V14.01,2013-03-17 20:45:00,
2013-03-17 15:46:00,79.1,65.9,29.77,NNW,346,6.0,13.0,64,0.00,,---,0.00,367.00,VWS V14.01,2013-03-17 20:46:00,
2013-03-17 15:49:00,79.3,66.5,29.77,SSE,165,5.0,13.0,65,0.00,,---,0.00,367.00,VWS V14.01,2013-03-17 20:49:00,
2013-03-17 15:52:00,78.9,66.2,29.77,SE,143,4.0,13.0,65,0.00,,---,0.00,167.00,VWS V14.01,2013-03-17 20:52:00,
2013-03-17 15:54:00,78.4,65.7,29.77,SSE,147,4.0,13.0,65,0.00,,---,0.00,272.00,VWS V14.01,2013-03-17 20:54:00,
2013-03-17 15:55:00,78.2,65.9,29.77,SE,143,9.0,13.0,66,0.00,,---,0.00,272.00,VWS V14.01,2013-03-17 20:55:00,
2013-03-17 15:56:00,78.2,66.4,29.77,SSW,194,6.0,13.0,67,0.00,,---,0.00,272.00,VWS V14.01,2013-03-17 20:56:00,
2013-03-17 15:57:00,78.1,66.3,29.77,SE,144,5.0,13.0,67,0.00,,---,0.00,223.00,VWS V14.01,2013-03-17 20:57:00,
2013-03-17 16:00:00,78.2,65.9,29.77,SE,136,4.0,5.0,66,0.00,,---,0.00,165.00,VWS V14.01,2013-03-17 21:00:00,
2013-03-17 16:01:00,78.0,65.7,29.77,South,184,6.0,10.0,66,0.00,,---,0.00,213.00,VWS V14.01,2013-03-17 21:01:00,
2013-03-17 16:03:00,77.6,65.8,29.77,SSE,163,3.0,11.0,67,0.00,,---,0.00,209.00,VWS V14.01,2013-03-17 21:03:00,
2013-03-17 16:04:00,77.5,66.1,29.77,SSW,211,4.0,11.0,68,0.00,,---,0.00,209.00,VWS V14.01,2013-03-17 21:04:00,
2013-03-17 16:05:00,77.3,65.9,29.77,SSE,153,7.0,13.0,68,0.00,,---,0.00,214.00,VWS V14.01,2013-03-17 21:05:00,
2013-03-17 16:08:00,77.0,65.6,29.77,SW,215,6.0,13.0,68,0.00,,---,0.00,202.00,VWS V14.01,2013-03-17 21:08:00,
2013-03-17 16:09:00,76.9,65.5,29.77,SSE,162,7.0,13.0,68,0.00,,---,0.00,202.00,VWS V14.01,2013-03-17 21:09:00,
2013-03-17 16:12:00,76.8,65.9,29.77,SSE,153,5.0,13.0,69,0.00,,---,0.00,294.00,VWS V14.01,2013-03-17 21:12:00,
2013-03-17 16:14:00,76.8,65.9,29.77,SSE,150,5.0,13.0,69,0.00,,---,0.00,253.00,VWS V14.01,2013-03-17 21:14:00,
2013-03-17 16:15:00,76.9,66.0,29.76,SSE,150,8.0,15.0,69,0.00,,---,0.00,253.00,VWS V14.01,2013-03-17 21:15:00,
2013-03-17 16:16:00,76.9,66.0,29.76,South,190,6.0,15.0,69,0.00,,---,0.00,230.00,VWS V14.01,2013-03-17 21:16:00,
2013-03-17 16:18:00,76.5,65.6,29.76,SE,145,6.0,17.0,69,0.00,,---,0.00,207.00,VWS V14.01,2013-03-17 21:18:00,
2013-03-17 16:20:00,76.4,65.9,29.76,SSE,165,4.0,17.0,70,0.00,,---,0.00,206.00,VWS V14.01,2013-03-17 21:20:00,
2013-03-17 16:22:00,76.5,66.0,29.76,SE,126,2.0,17.0,70,0.00,,---,0.00,202.00,VWS V14.01,2013-03-17 21:22:00,
2013-03-17 16:23:00,76.7,66.2,29.76,SE,144,5.0,17.0,70,0.00,,---,0.00,278.00,VWS V14.01,2013-03-17 21:23:00,
2013-03-17 16:27:00,77.0,66.1,29.76,SSE,148,10.0,17.0,69,0.00,,---,0.00,181.00,VWS V14.01,2013-03-17 21:27:00,
2013-03-17 16:28:00,76.9,66.0,29.76,SSE,158,6.0,17.0,69,0.00,,---,0.00,181.00,VWS V14.01,2013-03-17 21:28:00,
2013-03-17 16:29:00,76.8,66.3,29.76,SE,143,4.0,17.0,70,0.00,,---,0.00,209.00,VWS V14.01,2013-03-17 21:29:00,
2013-03-17 16:30:00,76.8,66.3,29.76,SE,143,4.0,17.0,70,0.00,,---,0.00,209.00,VWS V14.01,2013-03-17 21:30:00,
2013-03-17 16:33:00,78.0,67.4,29.76,ESE,115,11.0,12.0,70,0.00,,---,0.00,721.00,VWS V14.01,2013-03-17 21:33:00,
2013-03-17 16:34:00,78.7,66.8,29.76,SE,124,2.0,12.0,67,0.00,,---,0.00,197.00,VWS V14.01,2013-03-17 21:34:00,
2013-03-17 16:35:00,78.7,66.8,29.76,SSE,165,9.0,12.0,67,0.00,,---,0.00,188.00,VWS V14.01,2013-03-17 21:35:00,
2013-03-17 16:38:00,78.1,66.7,29.76,ESE,117,10.0,12.0,68,0.00,,---,0.00,200.00,VWS V14.01,2013-03-17 21:38:00,
2013-03-17 16:40:00,77.7,66.3,29.76,SE,127,7.0,12.0,68,0.00,,---,0.00,420.00,VWS V14.01,2013-03-17 21:40:00,
2013-03-17 16:42:00,77.4,66.4,29.76,South,173,4.0,15.0,69,0.00,,---,0.00,334.00,VWS V14.01,2013-03-17 21:42:00,
2013-03-17 16:43:00,77.0,66.1,29.75,South,169,6.0,15.0,69,0.00,,---,0.00,199.00,VWS V14.01,2013-03-17 21:43:00,
2013-03-17 16:45:00,76.7,66.6,29.76,SSE,157,3.0,15.0,71,0.00,,---,0.00,199.00,VWS V14.01,2013-03-17 21:45:00,
2013-03-17 16:46:00,76.7,66.6,29.76,SSE,162,2.0,15.0,71,0.00,,---,0.00,199.00,VWS V14.01,2013-03-17 21:46:00,
2013-03-17 16:49:00,76.6,66.5,29.76,SE,138,0.0,15.0,71,0.00,,---,0.00,174.00,VWS V14.01,2013-03-17 21:49:00,
2013-03-17 16:51:00,76.5,66.4,29.75,South,188,2.0,15.0,71,0.00,,---,0.00,178.00,VWS V14.01,2013-03-17 21:51:00,
2013-03-17 16:54:00,76.0,66.3,29.76,East,80,6.0,15.0,72,0.00,,---,0.00,155.00,VWS V14.01,2013-03-17 21:54:00,
2013-03-17 16:56:00,75.9,66.2,29.75,SSW,196,4.0,15.0,72,0.00,,---,0.00,156.00,VWS V14.01,2013-03-17 21:56:00,
2013-03-17 16:58:00,75.8,66.1,29.75,SE,138,5.0,15.0,72,0.00,,---,0.00,199.00,VWS V14.01,2013-03-17 21:58:00,
2013-03-17 16:59:00,75.8,66.5,29.75,SSE,157,5.0,15.0,73,0.00,,---,0.00,230.00,VWS V14.01,2013-03-17 21:59:00,
2013-03-17 17:00:00,75.8,66.5,29.75,ESE,105,4.0,15.0,73,0.00,,---,0.00,230.00,VWS V14.01,2013-03-17 22:00:00,
2013-03-17 17:02:00,76.5,66.8,29.75,SE,135,5.0,12.0,72,0.00,,---,0.00,230.00,VWS V14.01,2013-03-17 22:02:00,
2013-03-17 17:04:00,76.6,66.5,29.76,ESE,106,3.0,12.0,71,0.00,,---,0.00,146.00,VWS V14.01,2013-03-17 22:04:00,
2013-03-17 17:05:00,76.6,66.5,29.76,SSE,167,2.0,12.0,71,0.00,,---,0.00,132.00,VWS V14.01,2013-03-17 22:05:00,
2013-03-17 17:09:00,76.4,66.7,29.75,South,178,4.0,12.0,72,0.00,,---,0.00,171.00,VWS V14.01,2013-03-17 22:09:00,
2013-03-17 17:10:00,76.4,66.7,29.75,South,178,2.0,12.0,72,0.00,,---,0.00,171.00,VWS V14.01,2013-03-17 22:10:00,
2013-03-17 17:12:00,76.0,66.3,29.75,ESE,117,4.0,12.0,72,0.00,,---,0.00,148.00,VWS V14.01,2013-03-17 22:12:00,
2013-03-17 17:15:00,76.0,66.3,29.75,SE,132,5.0,12.0,72,0.00,,---,0.00,141.00,VWS V14.01,2013-03-17 22:15:00,
2013-03-17 17:18:00,76.4,67.1,29.75,SSE,150,6.0,12.0,73,0.00,,---,0.00,406.00,VWS V14.01,2013-03-17 22:18:00,
2013-03-17 17:20:00,76.8,67.1,29.75,South,180,4.0,12.0,72,0.00,,---,0.00,410.00,VWS V14.01,2013-03-17 22:20:00,
2013-03-17 17:21:00,77.0,66.9,29.75,East,86,5.0,12.0,71,0.00,,---,0.00,410.00,VWS V14.01,2013-03-17 22:21:00,
2013-03-17 17:23:00,77.1,66.6,29.75,SE,132,6.0,12.0,70,0.00,,---,0.00,130.00,VWS V14.01,2013-03-17 22:23:00,
2013-03-17 17:25:00,76.8,66.3,29.75,SE,137,4.0,12.0,70,0.00,,---,0.00,146.00,VWS V14.01,2013-03-17 22:25:00,
2013-03-17 17:28:00,76.4,66.3,29.75,SSE,164,2.0,12.0,71,0.00,,---,0.00,376.00,VWS V14.01,2013-03-17 22:28:00,
2013-03-17 17:29:00,76.4,66.7,29.75,SSE,165,6.0,12.0,72,0.00,,---,0.00,360.00,VWS V14.01,2013-03-17 22:29:00,
2013-03-17 17:30:00,76.4,66.7,29.75,SSE,151,4.0,12.0,72,0.00,,---,0.00,345.00,VWS V14.01,2013-03-17 22:30:00,
2013-03-17 17:32:00,76.6,66.9,29.75,SE,140,4.0,10.0,72,0.00,,---,0.00,330.00,VWS V14.01,2013-03-17 22:32:00,
2013-03-17 17:33:00,76.6,66.9,29.75,South,174,4.0,10.0,72,0.00,,---,0.00,325.00,VWS V14.01,2013-03-17 22:33:00,
2013-03-17 17:34:00,76.8,67.1,29.75,SE,141,1.0,10.0,72,0.00,,---,0.00,325.00,VWS V14.01,2013-03-17 22:34:00,
2013-03-17 17:36:00,76.9,67.2,29.75,SSE,166,8.0,10.0,72,0.00,,---,0.00,95.00,VWS V14.01,2013-03-17 22:36:00,
2013-03-17 17:39:00,76.4,66.7,29.75,SE,144,4.0,10.0,72,0.00,,---,0.00,132.00,VWS V14.01,2013-03-17 22:39:00,
2013-03-17 17:40:00,76.2,66.5,29.75,SE,136,5.0,10.0,72,0.00,,---,0.00,132.00,VWS V14.01,2013-03-17 22:40:00,
2013-03-17 17:41:00,76.0,66.3,29.75,SSE,153,7.0,10.0,72,0.00,,---,0.00,297.00,VWS V14.01,2013-03-17 22:41:00,
2013-03-17 17:45:00,75.5,66.6,29.75,SSE,157,5.0,10.0,74,0.00,,---,0.00,137.00,VWS V14.01,2013-03-17 22:45:00,
2013-03-17 17:46:00,75.5,66.6,29.75,SSE,148,5.0,10.0,74,0.00,,---,0.00,137.00,VWS V14.01,2013-03-17 22:46:00,
2013-03-17 17:47:00,75.3,66.4,29.75,South,169,7.0,12.0,74,0.00,,---,0.00,137.00,VWS V14.01,2013-03-17 22:47:00,
2013-03-17 17:51:00,75.6,66.7,29.75,SSE,156,4.0,12.0,74,0.00,,---,0.00,230.00,VWS V14.01,2013-03-17 22:51:00,
2013-03-17 17:52:00,75.5,66.6,29.75,South,173,3.0,12.0,74,0.00,,---,0.00,206.00,VWS V14.01,2013-03-17 22:52:00,
2013-03-17 17:53:00,75.5,66.6,29.75,SE,145,5.0,12.0,74,0.00,,---,0.00,181.00,VWS V14.01,2013-03-17 22:53:00,
2013-03-17 17:54:00,75.4,66.5,29.75,SSE,147,10.0,12.0,74,0.00,,---,0.00,120.00,VWS V14.01,2013-03-17 22:54:00,
2013-03-17 17:57:00,75.3,66.4,29.75,SE,145,3.0,12.0,74,0.00,,---,0.00,109.00,VWS V14.01,2013-03-17 22:57:00,
2013-03-17 17:58:00,75.2,66.7,29.75,South,169,5.0,12.0,75,0.00,,---,0.00,107.00,VWS V14.01,2013-03-17 22:58:00,
2013-03-17 17:59:00,75.2,66.3,29.75,South,175,2.0,12.0,74,0.00,,---,0.00,97.00,VWS V14.01,2013-03-17 22:59:00,
2013-03-17 18:00:00,75.1,66.2,29.75,South,175,0.0,2.0,74,0.00,,---,0.00,97.00,VWS V14.01,2013-03-17 23:00:00,
2013-03-17 18:03:00,75.0,66.6,29.75,ESE,105,8.0,12.0,75,0.00,,---,0.00,178.00,VWS V14.01,2013-03-17 23:03:00,
2013-03-17 18:05:00,75.0,66.2,29.75,SSW,192,8.0,17.0,74,0.00,,---,0.00,174.00,VWS V14.01,2013-03-17 23:05:00,
2013-03-17 18:07:00,75.0,66.2,29.75,South,176,8.0,17.0,74,0.00,,---,0.00,139.00,VWS V14.01,2013-03-17 23:07:00,
2013-03-17 18:08:00,75.0,66.2,29.75,SE,126,4.0,17.0,74,0.00,,---,0.00,118.00,VWS V14.01,2013-03-17 23:08:00,
2013-03-17 18:10:00,75.0,66.6,29.75,ESE,114,2.0,17.0,75,0.00,,---,0.00,84.00,VWS V14.01,2013-03-17 23:10:00,
2013-03-17 18:13:00,74.9,66.1,29.75,SSE,162,5.0,17.0,74,0.00,,---,0.00,107.00,VWS V14.01,2013-03-17 23:13:00,
2013-03-17 18:14:00,74.9,66.4,29.75,SSE,148,10.0,17.0,75,0.00,,---,0.00,107.00,VWS V14.01,2013-03-17 23:14:00,
2013-03-17 18:16:00,74.8,66.0,29.75,East,100,9.0,17.0,74,0.00,,---,0.00,121.00,VWS V14.01,2013-03-17 23:16:00,
2013-03-17 18:19:00,74.8,66.0,29.75,SSE,163,4.0,17.0,74,0.00,,---,0.00,105.00,VWS V14.01,2013-03-17 23:19:00,
2013-03-17 18:20:00,74.8,66.3,29.75,SE,138,2.0,17.0,75,0.00,,---,0.00,105.00,VWS V14.01,2013-03-17 23:20:00,
2013-03-17 18:24:00,74.5,66.1,29.75,SSE,166,7.0,17.0,75,0.00,,---,0.00,51.00,VWS V14.01,2013-03-17 23:24:00,
2013-03-17 18:25:00,74.4,66.0,29.75,SSE,156,6.0,17.0,75,0.00,,---,0.00,44.00,VWS V14.01,2013-03-17 23:25:00,
2013-03-17 18:28:00,74.1,65.7,29.75,South,178,0.0,17.0,75,0.00,,---,0.00,53.00,VWS V14.01,2013-03-17 23:28:00,
2013-03-17 18:29:00,73.9,65.9,29.75,SSE,150,4.0,17.0,76,0.00,,---,0.00,60.00,VWS V14.01,2013-03-17 23:29:00,
2013-03-17 18:30:00,73.9,65.9,29.75,SSE,157,6.0,6.0,76,0.00,,---,0.00,60.00,VWS V14.01,2013-03-17 23:30:00,
2013-03-17 18:33:00,73.8,65.8,29.75,SE,134,6.0,10.0,76,0.00,,---,0.00,54.00,VWS V14.01,2013-03-17 23:33:00,
2013-03-17 18:35:00,73.7,65.7,29.76,SE,130,2.0,10.0,76,0.00,,---,0.00,53.00,VWS V14.01,2013-03-17 23:35:00,
2013-03-17 18:37:00,73.6,65.9,29.76,SE,146,5.0,10.0,77,0.00,,---,0.00,53.00,VWS V14.01,2013-03-17 23:37:00,
2013-03-17 18:39:00,73.5,65.9,29.76,ESE,119,3.0,10.0,77,0.00,,---,0.00,44.00,VWS V14.01,2013-03-17 23:39:00,
2013-03-17 18:41:00,73.5,65.9,29.76,SSE,160,4.0,10.0,77,0.00,,---,0.00,49.00,VWS V14.01,2013-03-17 23:41:00,
2013-03-17 18:42:00,73.4,65.8,29.76,SSE,154,4.0,10.0,77,0.00,,---,0.00,49.00,VWS V14.01,2013-03-17 23:42:00,
2013-03-17 18:47:00,73.4,65.8,29.76,SSE,157,6.0,10.0,77,0.00,,---,0.00,60.00,VWS V14.01,2013-03-17 23:47:00,
2013-03-17 18:49:00,73.4,65.8,29.76,SSE,151,7.0,10.0,77,0.00,,---,0.00,54.00,VWS V14.01,2013-03-17 23:49:00,
2013-03-17 18:52:00,73.4,66.1,29.76,SE,146,2.0,10.0,78,0.00,,---,0.00,51.00,VWS V14.01,2013-03-17 23:52:00,
2013-03-17 18:55:00,73.3,66.0,29.76,SE,142,2.0,10.0,78,0.00,,---,0.00,37.00,VWS V14.01,2013-03-17 23:55:00,
2013-03-17 18:56:00,73.3,66.0,29.76,South,178,0.0,10.0,78,0.00,,---,0.00,33.00,VWS V14.01,2013-03-17 23:56:00,
2013-03-17 18:57:00,73.3,66.0,29.76,SSE,156,1.0,10.0,78,0.00,,---,0.00,30.00,VWS V14.01,2013-03-17 23:57:00,
2013-03-17 18:59:00,73.1,65.8,29.76,South,178,6.0,10.0,78,0.00,,---,0.00,21.00,VWS V14.01,2013-03-17 23:59:00,
2013-03-17 19:00:00,73.1,65.8,29.76,South,178,6.0,10.0,78,0.00,,---,0.00,21.00,VWS V14.01,2013-03-18 00:00:00,
2013-03-17 19:02:00,73.0,66.1,29.76,SE,126,1.0,6.0,79,0.00,,---,0.00,16.00,VWS V14.01,2013-03-18 00:02:00,
2013-03-17 19:03:00,73.0,66.1,29.76,SSE,149,5.0,7.0,79,0.00,,---,0.00,16.00,VWS V14.01,2013-03-18 00:03:00,
2013-03-17 19:05:00,72.9,66.0,29.76,SE,132,5.0,11.0,79,0.00,,---,0.00,18.00,VWS V14.01,2013-03-18 00:05:00,
2013-03-17 19:06:00,72.8,65.9,29.76,ESE,123,4.0,11.0,79,0.00,,---,0.00,21.00,VWS V14.01,2013-03-18 00:06:00,
2013-03-17 19:07:00,72.8,65.9,29.76,SSE,151,2.0,11.0,79,0.00,,---,0.00,23.00,VWS V14.01,2013-03-18 00:07:00,
2013-03-17 19:08:00,72.8,65.9,29.76,SE,136,3.0,11.0,79,0.00,,---,0.00,23.00,VWS V14.01,2013-03-18 00:08:00,
2013-03-17 19:11:00,72.6,65.7,29.76,SE,133,9.0,12.0,79,0.00,,---,0.00,14.00,VWS V14.01,2013-03-18 00:11:00,
2013-03-17 19:13:00,72.5,65.6,29.76,ESE,113,7.0,12.0,79,0.00,,---,0.00,12.00,VWS V14.01,2013-03-18 00:13:00,
2013-03-17 19:14:00,72.5,65.6,29.76,SE,138,2.0,12.0,79,0.00,,---,0.00,11.00,VWS V14.01,2013-03-18 00:14:00,
2013-03-17 19:17:00,72.3,65.8,29.76,SE,136,8.0,12.0,80,0.00,,---,0.00,9.00,VWS V14.01,2013-03-18 00:17:00,
2013-03-17 19:19:00,72.3,65.8,29.76,SSE,155,2.0,12.0,80,0.00,,---,0.00,7.00,VWS V14.01,2013-03-18 00:19:00,
2013-03-17 19:22:00,72.2,65.7,29.76,South,174,2.0,12.0,80,0.00,,---,0.00,5.00,VWS V14.01,2013-03-18 00:22:00,
2013-03-17 19:23:00,72.1,65.6,29.76,South,174,1.0,12.0,80,0.00,,---,0.00,5.00,VWS V14.01,2013-03-18 00:23:00,
2013-03-17 19:24:00,72.1,65.9,29.76,South,171,1.0,12.0,81,0.00,,---,0.00,0.00,VWS V14.01,2013-03-18 00:24:00,
2013-03-17 19:26:00,71.9,65.8,29.76,SE,136,6.0,12.0,81,0.00,,---,0.00,0.00,VWS V14.01,2013-03-18 00:26:00,
2013-03-17 19:29:00,71.8,65.7,29.76,East,93,0.0,12.0,81,0.00,,---,0.00,0.00,VWS V14.01,2013-03-18 00:29:00,
2013-03-17 19:30:00,71.8,65.7,29.76,SE,131,2.0,3.0,81,0.00,,---,0.00,0.00,VWS V14.01,2013-03-18 00:30:00,
2013-03-17 19:32:00,71.8,65.7,29.76,ESE,115,3.0,4.0,81,0.00,,---,0.00,0.00,VWS V14.01,2013-03-18 00:32:00,
2013-03-17 19:34:00,71.8,65.7,29.76,ESE,111,2.0,8.0,81,0.00,,---,0.00,0.00,VWS V14.01,2013-03-18 00:34:00,
2013-03-17 19:35:00,71.7,65.6,29.76,SSW,196,3.0,8.0,81,0.00,,---,0.00,0.00,VWS V14.01,2013-03-18 00:35:00,
2013-03-17 19:37:00,71.7,65.6,29.76,SSW,196,0.0,8.0,81,0.00,,---,0.00,0.00,VWS V14.01,2013-03-18 00:37:00,
2013-03-17 19:39:00,71.6,65.5,29.76,SSE,161,0.0,8.0,81,0.00,,---,0.00,0.00,VWS V14.01,2013-03-18 00:39:00,
2013-03-17 19:42:00,71.5,65.7,29.76,SE,124,5.0,8.0,82,0.00,,---,0.00,0.00,VWS V14.01,2013-03-18 00:42:00,
2013-03-17 19:43:00,71.5,65.7,29.77,SSE,147,3.0,8.0,82,0.00,,---,0.00,0.00,VWS V14.01,2013-03-18 00:43:00,
2013-03-17 19:44:00,71.4,65.6,29.77,South,190,3.0,8.0,82,0.00,,---,0.00,0.00,VWS V14.01,2013-03-18 00:44:00,
2013-03-17 19:47:00,71.3,65.5,29.77,SSE,148,5.0,8.0,82,0.00,,---,0.00,0.00,VWS V14.01,2013-03-18 00:47:00,
2013-03-17 19:48:00,71.2,65.4,29.77,SSE,150,2.0,8.0,82,0.00,,---,0.00,0.00,VWS V14.01,2013-03-18 00:48:00,
2013-03-17 19:51:00,71.1,65.3,29.77,SSE,157,3.0,8.0,82,0.00,,---,0.00,0.00,VWS V14.01,2013-03-18 00:51:00,
2013-03-17 19:52:00,71.1,65.3,29.77,East,85,0.0,8.0,82,0.00,,---,0.00,0.00,VWS V14.01,2013-03-18 00:52:00,
2013-03-17 19:54:00,71.0,65.2,29.77,SSE,163,7.0,8.0,82,0.00,,---,0.00,0.00,VWS V14.01,2013-03-18 00:54:00,
2013-03-17 19:56:00,70.9,65.5,29.77,SSE,153,2.0,8.0,83,0.00,,---,0.00,0.00,VWS V14.01,2013-03-18 00:56:00,
2013-03-17 19:58:00,70.8,65.4,29.77,SSE,157,2.0,8.0,83,0.00,,---,0.00,0.00,VWS V14.01,2013-03-18 00:58:00,
2013-03-17 19:59:00,70.8,65.4,29.77,SE,145,2.0,8.0,83,0.00,,---,0.00,0.00,VWS V14.01,2013-03-18 00:59:00,
2013-03-17 20:00:00,70.8,65.4,29.77,SE,145,1.0,8.0,83,0.00,,---,0.00,0.00,VWS V14.01,2013-03-18 01:00:00,
2013-03-17 20:02:00,70.7,65.3,29.77,ESE,118,3.0,9.0,83,0.00,,---,0.00,0.00,VWS V14.01,2013-03-18 01:02:00,
2013-03-17 20:03:00,70.6,65.2,29.77,SSE,159,2.0,9.0,83,0.00,,---,0.00,0.00,VWS V14.01,2013-03-18 01:03:00,
2013-03-17 20:04:00,70.6,65.2,29.77,SSE,155,2.0,9.0,83,0.00,,---,0.00,0.00,VWS V14.01,2013-03-18 01:04:00,
2013-03-17 20:05:00,70.6,65.2,29.77,SSE,155,3.0,9.0,83,0.00,,---,0.00,0.00,VWS V14.01,2013-03-18 01:05:00,
2013-03-17 20:07:00,70.5,65.1,29.77,South,177,2.0,9.0,83,0.00,,---,0.00,0.00,VWS V14.01,2013-03-18 01:07:00,
2013-03-17 20:09:00,70.5,65.1,29.77,SSE,150,3.0,9.0,83,0.00,,---,0.00,0.00,VWS V14.01,2013-03-18 01:09:00,
2013-03-17 20:11:00,70.4,65.3,29.77,SE,146,3.0,9.0,84,0.00,,---,0.00,0.00,VWS V14.01,2013-03-18 01:11:00,
2013-03-17 20:14:00,70.3,65.2,29.77,SSE,160,1.0,9.0,84,0.00,,---,0.00,0.00,VWS V14.01,2013-03-18 01:14:00,
2013-03-17 20:16:00,70.3,65.2,29.77,ESE,118,3.0,9.0,84,0.00,,---,0.00,0.00,VWS V14.01,2013-03-18 01:16:00,
2013-03-17 20:19:00,70.2,65.1,29.77,SE,140,0.0,9.0,84,0.00,,---,0.00,0.00,VWS V14.01,2013-03-18 01:19:00,
2013-03-17 20:20:00,70.2,65.1,29.77,SE,136,0.0,9.0,84,0.00,,---,0.00,0.00,VWS V14.01,2013-03-18 01:20:00,
2013-03-17 20:21:00,70.1,65.1,29.77,SE,136,2.0,9.0,84,0.00,,---,0.00,0.00,VWS V14.01,2013-03-18 01:21:00,
2013-03-17 20:24:00,70.0,64.9,29.77,SE,140,0.0,9.0,84,0.00,,---,0.00,0.00,VWS V14.01,2013-03-18 01:24:00,
2013-03-17 20:25:00,70.0,64.9,29.77,SE,140,0.0,9.0,84,0.00,,---,0.00,0.00,VWS V14.01,2013-03-18 01:25:00,
2013-03-17 20:26:00,69.9,65.2,29.77,SE,143,4.0,9.0,85,0.00,,---,0.00,0.00,VWS V14.01,2013-03-18 01:26:00,
2013-03-17 20:27:00,69.9,65.2,29.77,SSE,155,1.0,9.0,85,0.00,,---,0.00,0.00,VWS V14.01,2013-03-18 01:27:00,
2013-03-17 20:29:00,69.8,65.1,29.77,SE,138,4.0,9.0,85,0.00,,---,0.00,0.00,VWS V14.01,2013-03-18 01:29:00,
2013-03-17 20:30:00,69.8,65.1,29.77,SSE,164,3.0,5.0,85,0.00,,---,0.00,0.00,VWS V14.01,2013-03-18 01:30:00,
2013-03-17 20:32:00,69.7,65.0,29.77,SE,146,2.0,5.0,85,0.00,,---,0.00,0.00,VWS V14.01,2013-03-18 01:32:00,
2013-03-17 20:33:00,69.7,65.0,29.77,ESE,108,0.0,5.0,85,0.00,,---,0.00,0.00,VWS V14.01,2013-03-18 01:33:00,
2013-03-17 20:34:00,69.7,65.0,29.77,ESE,109,2.0,5.0,85,0.00,,---,0.00,0.00,VWS V14.01,2013-03-18 01:34:00,
2013-03-17 20:35:00,69.6,64.9,29.77,SSE,162,4.0,5.0,85,0.00,,---,0.00,0.00,VWS V14.01,2013-03-18 01:35:00,
2013-03-17 20:38:00,69.5,65.1,29.77,SSE,161,1.0,5.0,86,0.00,,---,0.00,0.00,VWS V14.01,2013-03-18 01:38:00,
2013-03-17 20:40:00,69.5,65.1,29.77,SSE,167,5.0,5.0,86,0.00,,---,0.00,0.00,VWS V14.01,2013-03-18 01:40:00,
2013-03-17 20:43:00,69.4,65.0,29.78,ESE,117,0.0,5.0,86,0.00,,---,0.00,0.00,VWS V14.01,2013-03-18 01:43:00,
2013-03-17 20:45:00,69.4,65.0,29.78,ESE,117,0.0,5.0,86,0.00,,---,0.00,0.00,VWS V14.01,2013-03-18 01:45:00,
2013-03-17 20:46:00,69.4,65.0,29.78,ESE,117,2.0,5.0,86,0.00,,---,0.00,0.00,VWS V14.01,2013-03-18 01:46:00,
2013-03-17 20:48:00,69.3,64.9,29.78,SE,144,4.0,5.0,86,0.00,,---,0.00,0.00,VWS V14.01,2013-03-18 01:48:00,
2013-03-17 20:49:00,69.3,64.9,29.77,SSE,154,2.0,5.0,86,0.00,,---,0.00,0.00,VWS V14.01,2013-03-18 01:49:00,
2013-03-17 20:50:00,69.3,64.9,29.77,SSE,154,1.0,5.0,86,0.00,,---,0.00,0.00,VWS V14.01,2013-03-18 01:50:00,
2013-03-17 20:54:00,69.2,64.8,29.78,SE,135,1.0,7.0,86,0.00,,---,0.00,0.00,VWS V14.01,2013-03-18 01:54:00,
2013-03-17 20:55:00,69.2,64.8,29.78,SE,143,2.0,7.0,86,0.00,,---,0.00,0.00,VWS V14.01,2013-03-18 01:55:00,
2013-03-17 20:56:00,69.2,65.2,29.78,SE,143,1.0,7.0,87,0.00,,---,0.00,0.00,VWS V14.01,2013-03-18 01:56:00,
2013-03-17 20:57:00,69.2,65.2,29.78,SE,144,2.0,7.0,87,0.00,,---,0.00,0.00,VWS V14.01,2013-03-18 01:57:00,
2013-03-17 20:59:00,69.1,65.1,29.78,SSE,157,4.0,7.0,87,0.00,,---,0.00,0.00,VWS V14.01,2013-03-18 01:59:00,
2013-03-17 21:00:00,69.1,65.1,29.78,SSE,155,0.0,7.0,87,0.00,,---,0.00,0.00,VWS V14.01,2013-03-18 02:00:00,
2013-03-17 21:01:00,69.1,65.1,29.79,SSE,147,0.0,4.0,87,0.00,,---,0.00,0.00,VWS V14.01,2013-03-18 02:01:00,
2013-03-17 21:02:00,69.1,65.1,29.78,South,186,3.0,7.0,87,0.00,,---,0.00,0.00,VWS V14.01,2013-03-18 02:02:00,
2013-03-17 21:05:00,69.1,65.1,29.79,SE,140,5.0,9.0,87,0.00,,---,0.00,0.00,VWS V14.01,2013-03-18 02:05:00,
2013-03-17 21:06:00,69.1,65.1,29.79,SSE,154,5.0,9.0,87,0.00,,---,0.00,0.00,VWS V14.01,2013-03-18 02:06:00,
2013-03-17 21:08:00,69.1,65.1,29.79,SE,136,4.0,9.0,87,0.00,,---,0.00,0.00,VWS V14.01,2013-03-18 02:08:00,
2013-03-17 21:09:00,69.2,65.2,29.79,South,173,0.0,9.0,87,0.00,,---,0.00,0.00,VWS V14.01,2013-03-18 02:09:00,
2013-03-17 21:10:00,69.2,65.2,29.79,SSE,153,3.0,9.0,87,0.00,,---,0.00,0.00,VWS V14.01,2013-03-18 02:10:00,
2013-03-17 21:13:00,69.2,65.2,29.79,SSE,157,4.0,9.0,87,0.00,,---,0.00,0.00,VWS V14.01,2013-03-18 02:13:00,
2013-03-17 21:14:00,69.2,65.2,29.79,SSE,153,2.0,9.0,87,0.00,,---,0.00,0.00,VWS V14.01,2013-03-18 02:14:00,
2013-03-17 21:17:00,69.3,65.3,29.79,SSE,156,2.0,9.0,87,0.00,,---,0.00,0.00,VWS V14.01,2013-03-18 02:17:00,
2013-03-17 21:19:00,69.3,65.3,29.79,SE,139,3.0,9.0,87,0.00,,---,0.00,0.00,VWS V14.01,2013-03-18 02:19:00,
2013-03-17 21:20:00,69.3,65.3,29.79,ESE,120,4.0,9.0,87,0.00,,---,0.00,0.00,VWS V14.01,2013-03-18 02:20:00,
2013-03-17 21:23:00,69.3,65.3,29.79,SSW,194,5.0,9.0,87,0.00,,---,0.00,0.00,VWS V14.01,2013-03-18 02:23:00,
2013-03-17 21:24:00,69.3,65.3,29.79,SSE,154,7.0,9.0,87,0.00,,---,0.00,0.00,VWS V14.01,2013-03-18 02:24:00,
2013-03-17 21:25:00,69.3,65.3,29.79,SE,137,6.0,11.0,87,0.00,,---,0.00,0.00,VWS V14.01,2013-03-18 02:25:00,
2013-03-17 21:29:00,69.4,65.4,29.79,SE,137,5.0,11.0,87,0.00,,---,0.00,0.00,VWS V14.01,2013-03-18 02:29:00,
2013-03-17 21:30:00,69.4,65.4,29.79,SE,140,5.0,11.0,87,0.00,,---,0.00,0.00,VWS V14.01,2013-03-18 02:30:00,
2013-03-17 21:31:00,69.4,65.7,29.79,SE,142,5.0,9.0,88,0.00,,---,0.00,0.00,VWS V14.01,2013-03-18 02:31:00,
2013-03-17 21:35:00,69.4,65.7,29.79,SE,132,2.0,9.0,88,0.00,,---,0.00,0.00,VWS V14.01,2013-03-18 02:35:00,
2013-03-17 21:36:00,69.4,65.7,29.79,SSE,167,3.0,9.0,88,0.00,,---,0.00,0.00,VWS V14.01,2013-03-18 02:36:00,
2013-03-17 21:37:00,69.4,65.7,29.80,SSE,167,5.0,9.0,88,0.00,,---,0.00,0.00,VWS V14.01,2013-03-18 02:37:00,
2013-03-17 21:41:00,69.4,65.7,29.80,ESE,117,8.0,10.0,88,0.00,,---,0.00,0.00,VWS V14.01,2013-03-18 02:41:00,
2013-03-17 21:42:00,69.4,65.7,29.80,South,178,3.0,10.0,88,0.00,,---,0.00,0.00,VWS V14.01,2013-03-18 02:42:00,
2013-03-17 21:43:00,69.3,65.6,29.80,ESE,123,1.0,10.0,88,0.00,,---,0.00,0.00,VWS V14.01,2013-03-18 02:43:00,
2013-03-17 21:44:00,69.3,65.6,29.80,SE,146,2.0,10.0,88,0.00,,---,0.00,0.00,VWS V14.01,2013-03-18 02:44:00,
2013-03-17 21:47:00,69.3,65.6,29.80,SSE,165,1.0,10.0,88,0.00,,---,0.00,0.00,VWS V14.01,2013-03-18 02:47:00,
2013-03-17 21:48:00,69.3,65.6,29.80,SSE,148,3.0,10.0,88,0.00,,---,0.00,0.00,VWS V14.01,2013-03-18 02:48:00,
2013-03-17 21:50:00,69.2,65.5,29.80,ESE,110,1.0,10.0,88,0.00,,---,0.00,0.00,VWS V14.01,2013-03-18 02:50:00,
2013-03-17 21:53:00,69.2,65.5,29.80,South,171,1.0,10.0,88,0.00,,---,0.00,0.00,VWS V14.01,2013-03-18 02:53:00,
2013-03-17 21:54:00,69.2,65.5,29.80,SSE,157,2.0,10.0,88,0.00,,---,0.00,0.00,VWS V14.01,2013-03-18 02:54:00,
2013-03-17 21:55:00,69.1,65.4,29.81,South,173,2.0,10.0,88,0.00,,---,0.00,0.00,VWS V14.01,2013-03-18 02:55:00,
2013-03-17 21:56:00,69.2,65.5,29.80,South,173,1.0,10.0,88,0.00,,---,0.00,0.00,VWS V14.01,2013-03-18 02:56:00,
2013-03-17 21:58:00,69.1,65.4,29.81,South,180,1.0,10.0,88,0.00,,---,0.00,0.00,VWS V14.01,2013-03-18 02:58:00,
2013-03-17 21:59:00,69.1,65.4,29.80,SSW,208,4.0,10.0,88,0.00,,---,0.00,0.00,VWS V14.01,2013-03-18 02:59:00,
2013-03-17 22:00:00,69.1,65.4,29.80,SSW,208,4.0,10.0,88,0.00,,---,0.00,0.00,VWS V14.01,2013-03-18 03:00:00,
2013-03-17 22:01:00,69.1,65.7,29.80,SE,144,2.0,4.0,89,0.00,,---,0.00,0.00,VWS V14.01,2013-03-18 03:01:00,
2013-03-17 22:04:00,69.0,65.6,29.81,South,175,0.0,5.0,89,0.00,,---,0.00,0.00,VWS V14.01,2013-03-18 03:04:00,
2013-03-17 22:05:00,69.0,65.6,29.80,SSE,150,3.0,5.0,89,0.00,,---,0.00,0.00,VWS V14.01,2013-03-18 03:05:00,
2013-03-17 22:07:00,69.0,65.6,29.81,SSE,150,3.0,5.0,89,0.00,,---,0.00,0.00,VWS V14.01,2013-03-18 03:07:00,
2013-03-17 22:09:00,69.0,65.6,29.81,SSW,195,1.0,5.0,89,0.00,,---,0.00,0.00,VWS V14.01,2013-03-18 03:09:00,
2013-03-17 22:10:00,69.0,65.6,29.81,SE,144,0.0,5.0,89,0.00,,---,0.00,0.00,VWS V14.01,2013-03-18 03:10:00,
2013-03-17 22:12:00,69.0,65.6,29.81,SE,143,3.0,5.0,89,0.00,,---,0.00,0.00,VWS V14.01,2013-03-18 03:12:00,
2013-03-17 22:13:00,69.0,65.6,29.81,SE,140,1.0,5.0,89,0.00,,---,0.00,0.00,VWS V14.01,2013-03-18 03:13:00,
2013-03-17 22:14:00,69.0,65.6,29.81,SSE,153,3.0,5.0,89,0.00,,---,0.00,0.00,VWS V14.01,2013-03-18 03:14:00,
2013-03-17 22:17:00,69.0,65.6,29.81,SSW,212,4.0,9.0,89,0.00,,---,0.00,0.00,VWS V14.01,2013-03-18 03:17:00,
2013-03-17 22:18:00,69.0,65.6,29.81,SE,139,3.0,9.0,89,0.00,,---,0.00,0.00,VWS V14.01,2013-03-18 03:18:00,
2013-03-17 22:20:00,69.0,65.6,29.81,SSE,150,2.0,9.0,89,0.00,,---,0.00,0.00,VWS V14.01,2013-03-18 03:20:00,
2013-03-17 22:22:00,69.0,65.6,29.81,SSE,154,4.0,9.0,89,0.00,,---,0.00,0.00,VWS V14.01,2013-03-18 03:22:00,
2013-03-17 22:24:00,69.0,65.9,29.81,SE,134,0.0,9.0,90,0.00,,---,0.00,0.00,VWS V14.01,2013-03-18 03:24:00,
2013-03-17 22:25:00,69.0,65.9,29.81,SE,134,2.0,9.0,90,0.00,,---,0.00,0.00,VWS V14.01,2013-03-18 03:25:00,
2013-03-17 22:27:00,69.0,65.9,29.81,SSE,153,1.0,9.0,90,0.00,,---,0.00,0.00,VWS V14.01,2013-03-18 03:27:00,
2013-03-17 22:30:00,69.0,65.9,29.81,SSE,157,3.0,4.0,90,0.00,,---,0.00,0.00,VWS V14.01,2013-03-18 03:30:00,
2013-03-17 22:31:00,69.0,65.9,29.81,SSE,157,0.0,4.0,90,0.00,,---,0.00,0.00,VWS V14.01,2013-03-18 03:31:00,
2013-03-17 22:33:00,69.0,65.9,29.81,SSE,157,2.0,4.0,90,0.00,,---,0.00,0.00,VWS V14.01,2013-03-18 03:33:00,
2013-03-17 22:36:00,69.0,65.9,29.81,SSE,165,3.0,5.0,90,0.00,,---,0.00,0.00,VWS V14.01,2013-03-18 03:36:00,
2013-03-17 22:38:00,69.0,65.9,29.81,SSW,194,4.0,5.0,90,0.00,,---,0.00,0.00,VWS V14.01,2013-03-18 03:38:00,
2013-03-17 22:39:00,69.0,65.9,29.81,SSW,194,0.0,5.0,90,0.00,,---,0.00,0.00,VWS V14.01,2013-03-18 03:39:00,
2013-03-17 22:40:00,69.0,65.9,29.81,SSW,194,0.0,5.0,90,0.00,,---,0.00,0.00,VWS V14.01,2013-03-18 03:40:00,
2013-03-17 22:41:00,69.0,65.9,29.81,SSW,194,0.0,5.0,90,0.00,,---,0.00,0.00,VWS V14.01,2013-03-18 03:41:00,
2013-03-17 22:44:00,69.0,65.9,29.81,SSE,167,3.0,5.0,90,0.00,,---,0.00,0.00,VWS V14.01,2013-03-18 03:44:00,
2013-03-17 22:45:00,69.0,65.9,29.81,SE,146,3.0,5.0,90,0.00,,---,0.00,0.00,VWS V14.01,2013-03-18 03:45:00,
2013-03-17 22:46:00,69.0,65.9,29.81,SE,144,2.0,5.0,90,0.00,,---,0.00,0.00,VWS V14.01,2013-03-18 03:46:00,
2013-03-17 22:48:00,68.9,65.8,29.81,SSE,160,2.0,5.0,90,0.00,,---,0.00,0.00,VWS V14.01,2013-03-18 03:48:00,
2013-03-17 22:49:00,69.0,65.9,29.81,SSW,200,2.0,5.0,90,0.00,,---,0.00,0.00,VWS V14.01,2013-03-18 03:49:00,
2013-03-17 22:51:00,69.0,65.9,29.81,SE,138,4.0,7.0,90,0.00,,---,0.00,0.00,VWS V14.01,2013-03-18 03:51:00,
2013-03-17 22:52:00,68.9,65.8,29.81,SE,130,3.0,7.0,90,0.00,,---,0.00,0.00,VWS V14.01,2013-03-18 03:52:00,
2013-03-17 22:54:00,69.0,65.9,29.81,SSE,165,0.0,7.0,90,0.00,,---,0.00,0.00,VWS V14.01,2013-03-18 03:54:00,
2013-03-17 22:55:00,68.9,65.8,29.81,SSE,165,0.0,7.0,90,0.00,,---,0.00,0.00,VWS V14.01,2013-03-18 03:55:00,
2013-03-17 22:57:00,68.9,65.8,29.81,SSE,165,0.0,7.0,90,0.00,,---,0.00,0.00,VWS V14.01,2013-03-18 03:57:00,
2013-03-17 22:58:00,68.9,65.8,29.81,SSE,165,1.0,7.0,90,0.00,,---,0.00,0.00,VWS V14.01,2013-03-18 03:58:00,
2013-03-17 22:59:00,68.9,65.8,29.81,SSE,165,2.0,7.0,90,0.00,,---,0.00,0.00,VWS V14.01,2013-03-18 03:59:00,
2013-03-17 23:00:00,68.9,65.8,29.81,SSE,165,0.0,3.0,90,0.00,,---,0.00,0.00,VWS V14.01,2013-03-18 04:00:00,
2013-03-17 23:01:00,68.9,65.8,29.81,SSE,165,0.0,3.0,90,0.00,,---,0.00,0.00,VWS V14.01,2013-03-18 04:01:00,
2013-03-17 23:05:00,68.9,65.8,29.81,SSE,148,1.0,4.0,90,0.00,,---,0.00,0.00,VWS V14.01,2013-03-18 04:05:00,
2013-03-17 23:07:00,68.9,65.8,29.81,SSE,150,1.0,4.0,90,0.00,,---,0.00,0.00,VWS V14.01,2013-03-18 04:07:00,
2013-03-17 23:08:00,68.9,65.8,29.81,SSE,148,1.0,4.0,90,0.00,,---,0.00,0.00,VWS V14.01,2013-03-18 04:08:00,
2013-03-17 23:11:00,68.9,65.8,29.81,SSE,149,0.0,4.0,90,0.00,,---,0.00,0.00,VWS V14.01,2013-03-18 04:11:00,
2013-03-17 23:13:00,68.8,65.8,29.81,SSW,213,1.0,5.0,90,0.00,,---,0.00,0.00,VWS V14.01,2013-03-18 04:13:00,
2013-03-17 23:14:00,68.8,65.8,29.81,SSE,163,5.0,6.0,90,0.00,,---,0.00,0.00,VWS V14.01,2013-03-18 04:14:00,
2013-03-17 23:17:00,68.8,65.8,29.81,SSE,155,2.0,6.0,90,0.00,,---,0.00,0.00,VWS V14.01,2013-03-18 04:17:00,
2013-03-17 23:18:00,68.8,65.8,29.81,SE,136,1.0,6.0,90,0.00,,---,0.00,0.00,VWS V14.01,2013-03-18 04:18:00,
2013-03-17 23:19:00,68.8,65.8,29.81,SSE,153,3.0,6.0,90,0.00,,---,0.00,0.00,VWS V14.01,2013-03-18 04:19:00,
2013-03-17 23:23:00,68.8,65.8,29.81,SSE,149,1.0,6.0,90,0.00,,---,0.00,0.00,VWS V14.01,2013-03-18 04:23:00,
2013-03-17 23:24:00,68.8,65.8,29.81,SSE,150,2.0,6.0,90,0.00,,---,0.00,0.00,VWS V14.01,2013-03-18 04:24:00,
2013-03-17 23:25:00,68.8,65.8,29.81,SSE,150,2.0,6.0,90,0.00,,---,0.00,0.00,VWS V14.01,2013-03-18 04:25:00,
2013-03-17 23:29:00,68.8,65.8,29.81,SW,219,4.0,6.0,90,0.00,,---,0.00,0.00,VWS V14.01,2013-03-18 04:29:00,
2013-03-17 23:30:00,68.7,65.7,29.81,SSW,209,3.0,8.0,90,0.00,,---,0.00,0.00,VWS V14.01,2013-03-18 04:30:00,
2013-03-17 23:31:00,68.7,65.7,29.81,SSE,161,3.0,4.0,90,0.00,,---,0.00,0.00,VWS V14.01,2013-03-18 04:31:00,
2013-03-17 23:34:00,68.7,65.7,29.81,South,181,0.0,4.0,90,0.00,,---,0.00,0.00,VWS V14.01,2013-03-18 04:34:00,
2013-03-17 23:35:00,68.7,65.7,29.81,SSE,157,1.0,4.0,90,0.00,,---,0.00,0.00,VWS V14.01,2013-03-18 04:35:00,
2013-03-17 23:36:00,68.7,65.7,29.81,SSE,158,2.0,4.0,90,0.00,,---,0.00,0.00,VWS V14.01,2013-03-18 04:36:00,
2013-03-17 23:39:00,68.7,66.0,29.81,SSW,204,0.0,6.0,91,0.00,,---,0.00,0.00,VWS V14.01,2013-03-18 04:39:00,
2013-03-17 23:40:00,68.7,66.0,29.81,SSE,153,3.0,6.0,91,0.00,,---,0.00,0.00,VWS V14.01,2013-03-18 04:40:00,
2013-03-17 23:41:00,68.7,66.0,29.81,SSW,208,6.0,6.0,91,0.00,,---,0.00,0.00,VWS V14.01,2013-03-18 04:41:00,
2013-03-17 23:42:00,68.7,66.0,29.81,South,173,3.0,7.0,91,0.00,,---,0.00,0.00,VWS V14.01,2013-03-18 04:42:00,
2013-03-17 23:44:00,68.7,66.0,29.81,SE,132,1.0,7.0,91,0.00,,---,0.00,0.00,VWS V14.01,2013-03-18 04:44:00,
2013-03-17 23:46:00,68.7,66.0,29.81,SSE,159,4.0,7.0,91,0.00,,---,0.00,0.00,VWS V14.01,2013-03-18 04:46:00,
2013-03-17 23:49:00,68.6,65.9,29.81,SE,142,2.0,7.0,91,0.00,,---,0.00,0.00,VWS V14.01,2013-03-18 04:49:00,
2013-03-17 23:51:00,68.6,65.9,29.81,SSE,163,2.0,7.0,91,0.00,,---,0.00,0.00,VWS V14.01,2013-03-18 04:51:00,
2013-03-17 23:54:00,68.6,65.9,29.81,SSE,161,3.0,7.0,91,0.00,,---,0.00,0.00,VWS V14.01,2013-03-18 04:54:00,
2013-03-17 23:55:00,68.6,65.9,29.81,South,169,1.0,7.0,91,0.00,,---,0.00,0.00,VWS V14.01,2013-03-18 04:55:00,
2013-03-17 23:56:00,68.6,65.9,29.81,South,169,1.0,7.0,91,0.00,,---,0.00,0.00,VWS V14.01,2013-03-18 04:56:00,
2013-03-17 23:59:00,68.6,65.9,29.81,South,184,5.0,7.0,91,0.00,,---,0.00,0.00,VWS V14.01,2013-03-18 04:59:00,